GFSCGP_500_temp_000.txt.gz
Temp
-11 -11 -10 -11 -12 -11 -11 -11 -11 -11 -11 -12 -11 -10 -10 -9 -10 -10 -10 -10 -10 -10 -10 -10 -10 -9 -9 -10 -10 -10 -10 -10 -10 -10 -10 -10 -10 -10 -10 -10 -10 -10 -10 -10
-11 -10 -11 -12 -11 -11 -11 -11 -11 -10 -11 -11 -11 -10 -9 -9 -9 -10 -10 -10 -10 -10 -10 -10 -10 -9 -9 -9 -9 -9 -10 -10 -10 -11 -10 -11 -11 -10 -10 -10 -10 -10 -10 -10
-11 -11 -11 -11 -11 -11 -11 -11 -11 -11 -11 -11 -10 -9 -9 -9 -9 -10 -10 -10 -10 -10 -10 -10 -10 -9 -9 -9 -10 -10 -10 -10 -11 -11 -11 -11 -11 -11 -11 -10 -10 -10 -10 -10
-11 -11 -11 -12 -11 -12 -11 -11 -11 -11 -11 -11 -10 -8 -8 -9 -9 -9 -10 -10 -10 -10 -10 -10 -10 -9 -10 -10 -10 -10 -10 -10 -11 -10 -10 -11 -11 -11 -11 -11 -11 -11 -11 -11
-11 -11 -11 -12 -12 -12 -12 -12 -12 -12 -11 -11 -10 -10 -8 -9 -9 -9 -9 -10 -11 -11 -11 -10 -10 -10 -10 -10 -10 -11 -10 -10 -11 -10 -10 -11 -11 -11 -10 -11 -11 -11 -11 -11
-11 -12 -12 -12 -12 -12 -12 -12 -12 -12 -12 -10 -10 -10 -7 -9 -9 -9 -10 -10 -10 -11 -11 -11 -11 -10 -10 -11 -11 -11 -10 -11 -11 -10 -10 -11 -11 -11 -11 -10 -11 -11 -11 -11
-13 -13 -13 -12 -12 -13 -13 -13 -13 -12 -12 -9 -10 -10 -9 -9 -10 -10 -10 -10 -11 -11 -11 -12 -12 -12 -11 -11 -11 -11 -11 -11 -11 -11 -10 -11 -12 -12 -11 -11 -11 -11 -11 -11
-13 -12 -13 -13 -13 -13 -13 -14 -14 -14 -12 -11 -11 -9 -8 -10 -10 -10 -11 -11 -11 -10 -10 -12 -13 -12 -12 -12 -12 -12 -12 -12 -11 -11 -11 -11 -12 -13 -12 -12 -12 -12 -12 -12
-15 -13 -14 -14 -14 -14 -12 -12 -14 -15 -13 -13 -9 -9 -9 -10 -10 -10 -11 -11 -11 -12 -12 -12 -12 -13 -13 -13 -13 -13 -12 -12 -12 -12 -12 -12 -12 -13 -13 -13 -13 -12 -12 -12
-14 -15 -14 -15 -14 -13 -15 -14 -13 -14 -14 -14 -10 -11 -9 -11 -11 -11 -11 -12 -12 -13 -13 -13 -13 -13 -14 -14 -13 -13 -13 -12 -12 -12 -13 -12 -12 -13 -13 -13 -13 -13 -13 -13
-15 -15 -13 -15 -14 -14 -14 -14 -15 -15 -15 -14 -13 -10 -10 -11 -11 -11 -12 -13 -13 -14 -14 -14 -14 -14 -14 -13 -13 -14 -13 -12 -13 -13 -13 -13 -13 -13 -13 -14 -13 -13 -13 -14
-15 -16 -15 -14 -15 -15 -15 -15 -15 -14 -13 -14 -14 -11 -11 -11 -12 -13 -13 -13 -13 -14 -14 -14 -14 -14 -14 -14 -13 -13 -13 -13 -14 -13 -13 -13 -13 -14 -14 -14 -14 -14 -14 -14
-15 -15 -15 -15 -14 -14 -15 -14 -15 -15 -15 -15 -15 -13 -12 -12 -13 -13 -13 -14 -15 -15 -14 -14 -14 -14 -14 -14 -14 -14 -14 -14 -14 -14 -14 -14 -14 -14 -13 -13 -14 -14 -14 -15
-17 -17 -18 -17 -16 -17 -16 -16 -15 -16 -19 -15 -15 -15 -13 -13 -13 -13 -13 -15 -15 -15 -15 -16 -15 -14 -15 -15 -15 -16 -15 -15 -14 -14 -14 -14 -14 -14 -14 -14 -15 -15 -15 -15
-19 -18 -17 -18 -18 -18 -17 -17 -17 -17 -17 -17 -15 -15 -14 -13 -14 -15 -14 -14 -15 -15 -16 -17 -16 -15 -15 -15 -15 -15 -15 -15 -15 -15 -15 -15 -15 -15 -15 -15 -16 -16 -16 -17
-18 -17 -18 -17 -17 -17 -17 -17 -17 -17 -16 -17 -17 -16 -14 -15 -15 -13 -13 -15 -17 -17 -17 -17 -18 -17 -16 -16 -16 -16 -15 -15 -15 -15 -15 -15 -16 -16 -16 -17 -17 -17 -18 -18
-18 -18 -18 -18 -17 -18 -19 -16 -16 -17 -17 -16 -17 -16 -16 -16 -16 -16 -16 -17 -17 -17 -17 -17 -18 -17 -17 -16 -15 -15 -16 -16 -16 -16 -16 -16 -16 -17 -18 -18 -18 -18 -18 -19
-20 -20 -20 -19 -20 -20 -17 -16 -18 -18 -17 -16 -16 -18 -18 -17 -16 -17 -17 -17 -18 -17 -17 -17 -18 -17 -17 -17 -17 -17 -17 -17 -18 -18 -17 -18 -18 -18 -18 -19 -19 -20 -20 -20
-21 -21 -21 -21 -21 -20 -20 -18 -17 -17 -16 -16 -17 -16 -16 -17 -17 -18 -18 -18 -19 -19 -18 -18 -18 -19 -19 -18 -18 -18 -18 -18 -18 -19 -19 -19 -19 -20 -20 -20 -19 -20 -21 -21
-22 -22 -22 -21 -21 -21 -21 -20 -20 -20 -20 -19 -17 -17 -20 -20 -20 -19 -19 -19 -18 -19 -19 -19 -19 -19 -19 -19 -18 -18 -18 -19 -19 -19 -19 -20 -20 -21 -21 -21 -21 -21 -21 -22
-22 -22 -22 -21 -21 -21 -21 -21 -21 -22 -21 -21 -21 -21 -21 -21 -21 -20 -20 -19 -19 -19 -20 -20 -20 -19 -19 -19 -19 -19 -20 -19 -20 -20 -20 -21 -21 -22 -22 -22 -22 -22 -22 -22
-24 -24 -23 -22 -22 -22 -22 -22 -22 -21 -21 -21 -21 -22 -21 -21 -20 -20 -20 -20 -19 -20 -20 -20 -20 -19 -19 -19 -20 -20 -20 -20 -21 -21 -21 -20 -21 -21 -22 -22 -22 -22 -23 -22
-24 -24 -24 -23 -22 -22 -22 -22 -22 -21 -22 -22 -22 -22 -21 -21 -21 -21 -21 -21 -20 -20 -20 -20 -20 -20 -20 -20 -20 -21 -21 -21 -21 -22 -21 -22 -22 -22 -22 -22 -23 -23 -23 -23
-26 -24 -24 -23 -22 -22 -23 -23 -22 -21 -22 -21 -22 -22 -22 -22 -22 -21 -22 -22 -21 -20 -21 -21 -21 -21 -21 -21 -21 -21 -21 -21 -22 -22 -22 -23 -23 -23 -23 -23 -23 -23 -24 -23
-26 -25 -25 -25 -24 -23 -24 -23 -22 -22 -23 -22 -22 -22 -22 -22 -21 -21 -22 -22 -22 -21 -21 -21 -21 -22 -22 -22 -22 -22 -22 -22 -22 -22 -22 -22 -23 -23 -23 -23 -23 -24 -24 -24
-28 -27 -27 -26 -25 -25 -25 -25 -24 -24 -23 -22 -24 -23 -23 -22 -21 -22 -22 -22 -22 -22 -22 -22 -22 -22 -22 -22 -22 -22 -22 -22 -22 -22 -22 -22 -23 -23 -23 -24 -24 -24 -25 -24

GFSCGP_500_temp_003.txt.gz
Temp
-11 -10 -10 -11 -11 -11 -11 -11 -10 -10 -11 -11 -11 -10 -9 -10 -10 -10 -10 -10 -11 -10 -10 -10 -10 -9 -9 -9 -9 -9 -9 -9 -9 -9 -9 -10 -10 -10 -10 -11 -11 -11 -10 -10
-11 -10 -11 -12 -11 -11 -11 -11 -10 -10 -11 -11 -10 -9 -9 -9 -9 -9 -10 -10 -11 -10 -10 -10 -10 -9 -9 -9 -9 -9 -8 -8 -9 -10 -10 -10 -10 -11 -11 -11 -11 -11 -11 -10
-11 -11 -11 -11 -11 -12 -11 -11 -11 -11 -11 -10 -10 -8 -9 -9 -9 -9 -10 -10 -10 -10 -10 -10 -10 -10 -10 -9 -9 -8 -9 -9 -10 -10 -10 -11 -11 -11 -11 -11 -11 -11 -11 -11
-11 -11 -11 -11 -11 -12 -10 -12 -11 -11 -11 -10 -10 -8 -8 -8 -9 -9 -10 -10 -10 -10 -10 -10 -10 -10 -10 -10 -9 -9 -9 -10 -11 -11 -11 -11 -11 -11 -11 -11 -11 -11 -10 -10
-11 -12 -12 -12 -12 -13 -11 -11 -12 -11 -11 -10 -9 -10 -7 -8 -8 -9 -9 -10 -11 -11 -10 -11 -11 -11 -10 -10 -9 -9 -10 -11 -11 -11 -11 -11 -11 -10 -10 -11 -11 -11 -11 -11
-11 -12 -12 -12 -13 -13 -12 -12 -11 -12 -11 -10 -10 -10 -6 -8 -9 -9 -10 -10 -10 -11 -11 -11 -11 -10 -10 -10 -10 -10 -10 -11 -11 -11 -11 -11 -11 -11 -11 -11 -12 -12 -11 -11
-13 -11 -12 -13 -13 -14 -14 -13 -12 -12 -12 -10 -11 -11 -7 -9 -9 -10 -10 -10 -10 -11 -11 -11 -11 -11 -11 -11 -11 -11 -11 -11 -11 -11 -11 -11 -11 -11 -11 -12 -12 -11 -11 -12
-14 -12 -13 -13 -14 -14 -14 -15 -14 -14 -12 -11 -11 -8 -8 -10 -10 -11 -10 -11 -11 -11 -11 -11 -12 -12 -13 -12 -12 -13 -12 -12 -12 -12 -12 -12 -12 -12 -12 -13 -13 -12 -12 -12
-15 -14 -14 -14 -14 -14 -14 -15 -15 -16 -14 -14 -10 -9 -9 -10 -11 -10 -10 -11 -12 -12 -12 -12 -13 -13 -14 -14 -14 -13 -13 -13 -12 -12 -12 -13 -13 -13 -13 -13 -13 -14 -13 -13
-15 -15 -13 -14 -15 -14 -14 -14 -15 -15 -15 -14 -11 -11 -10 -11 -11 -12 -12 -12 -13 -14 -14 -14 -14 -14 -14 -15 -14 -13 -13 -13 -13 -13 -13 -13 -13 -13 -14 -14 -14 -14 -14 -14
-16 -16 -13 -15 -14 -15 -15 -15 -15 -15 -15 -15 -15 -12 -11 -12 -12 -13 -14 -13 -14 -15 -15 -15 -14 -15 -16 -16 -15 -15 -14 -14 -13 -13 -13 -13 -14 -14 -14 -14 -14 -14 -14 -14
-16 -17 -16 -16 -16 -16 -16 -16 -16 -16 -15 -16 -16 -15 -12 -13 -13 -14 -14 -14 -14 -14 -14 -15 -15 -16 -16 -15 -15 -15 -14 -14 -14 -14 -14 -14 -14 -15 -15 -14 -14 -14 -14 -14
-16 -17 -18 -18 -18 -17 -18 -18 -18 -18 -17 -17 -16 -15 -13 -14 -14 -14 -13 -14 -14 -14 -14 -15 -16 -15 -15 -15 -14 -15 -15 -14 -14 -14 -14 -15 -15 -15 -15 -15 -14 -15 -14 -15
-19 -17 -17 -19 -18 -17 -18 -17 -18 -18 -18 -17 -18 -16 -16 -14 -13 -13 -15 -15 -15 -14 -15 -16 -16 -16 -16 -15 -15 -15 -15 -16 -16 -16 -16 -16 -16 -16 -16 -15 -15 -15 -16 -16
-20 -19 -19 -18 -17 -17 -17 -17 -16 -19 -18 -18 -17 -17 -16 -16 -15 -15 -15 -15 -15 -16 -16 -16 -16 -16 -16 -15 -15 -15 -15 -15 -16 -16 -16 -16 -16 -16 -16 -16 -16 -16 -17 -17
-19 -19 -20 -20 -19 -18 -18 -18 -18 -17 -15 -17 -18 -19 -15 -15 -16 -16 -16 -16 -17 -17 -17 -17 -17 -17 -17 -17 -16 -16 -16 -16 -16 -16 -16 -16 -16 -17 -17 -17 -18 -18 -18 -19
-20 -21 -20 -21 -20 -20 -21 -18 -17 -17 -17 -16 -19 -17 -19 -18 -17 -17 -17 -17 -18 -17 -17 -17 -17 -18 -17 -17 -17 -17 -17 -16 -16 -16 -16 -17 -17 -18 -18 -18 -19 -19 -19 -19
-21 -20 -20 -21 -20 -21 -20 -21 -21 -21 -19 -18 -19 -20 -20 -19 -18 -18 -19 -19 -18 -17 -18 -18 -18 -18 -17 -17 -17 -17 -17 -17 -17 -17 -17 -18 -18 -18 -19 -19 -20 -20 -20 -21
-22 -23 -21 -21 -22 -22 -21 -21 -21 -21 -21 -21 -21 -21 -21 -21 -21 -20 -19 -18 -18 -18 -17 -17 -18 -18 -18 -18 -18 -18 -18 -18 -18 -18 -18 -18 -19 -19 -19 -20 -21 -20 -20 -21
-23 -23 -22 -22 -22 -23 -21 -22 -22 -22 -22 -22 -21 -22 -21 -21 -21 -20 -20 -20 -21 -20 -19 -18 -18 -18 -18 -17 -17 -17 -18 -18 -18 -19 -19 -19 -19 -19 -20 -21 -21 -21 -21 -20
-24 -24 -24 -23 -23 -23 -23 -23 -22 -22 -22 -21 -21 -21 -21 -21 -21 -22 -21 -21 -20 -20 -21 -20 -19 -20 -20 -19 -18 -19 -19 -20 -20 -20 -20 -19 -19 -20 -21 -21 -21 -21 -21 -21
-25 -25 -25 -25 -25 -25 -24 -24 -24 -23 -23 -22 -22 -22 -21 -22 -22 -21 -21 -21 -20 -21 -21 -21 -20 -20 -20 -20 -21 -21 -21 -21 -20 -20 -20 -20 -21 -21 -21 -21 -21 -21 -22 -21
-27 -26 -26 -26 -26 -26 -26 -25 -23 -23 -23 -22 -22 -22 -22 -22 -21 -21 -21 -22 -22 -22 -22 -21 -21 -21 -21 -21 -21 -20 -20 -21 -21 -21 -21 -21 -21 -22 -22 -21 -21 -21 -21 -21
-29 -29 -30 -29 -27 -27 -26 -27 -26 -25 -25 -24 -24 -23 -22 -23 -23 -22 -22 -22 -22 -22 -22 -22 -22 -21 -21 -21 -21 -21 -22 -22 -21 -21 -22 -22 -22 -22 -22 -22 -22 -22 -22 -22
-29 -29 -29 -29 -28 -29 -28 -27 -27 -25 -25 -25 -23 -24 -24 -24 -23 -22 -22 -21 -21 -21 -22 -22 -22 -22 -22 -22 -22 -21 -22 -22 -23 -22 -23 -22 -21 -22 -22 -22 -22 -22 -23 -22
-32 -32 -31 -31 -30 -30 -29 -29 -28 -27 -26 -25 -25 -24 -24 -23 -22 -22 -22 -22 -22 -22 -22 -22 -22 -22 -22 -22 -23 -22 -22 -23 -23 -23 -23 -23 -22 -23 -23 -23 -23 -23 -23 -23

GFSCGP_500_temp_006.txt.gz
Temp
-11 -10 -10 -11 -12 -11 -11 -11 -11 -11 -12 -11 -10 -10 -9 -9 -9 -9 -10 -10 -10 -11 -11 -11 -10 -10 -10 -10 -10 -10 -9 -9 -9 -9 -9 -9 -10 -10 -10 -10 -10 -10 -10 -10
-11 -10 -11 -12 -11 -11 -11 -11 -11 -11 -12 -11 -10 -9 -9 -9 -9 -9 -9 -10 -10 -10 -10 -10 -10 -10 -10 -10 -10 -10 -10 -10 -9 -9 -9 -9 -10 -10 -10 -10 -11 -11 -11 -11
-11 -11 -11 -11 -11 -12 -11 -11 -11 -11 -11 -11 -10 -8 -8 -9 -9 -10 -10 -10 -10 -10 -10 -10 -10 -10 -10 -10 -10 -10 -10 -10 -9 -9 -9 -10 -10 -11 -11 -11 -11 -11 -11 -11
-11 -11 -11 -12 -12 -12 -11 -12 -12 -11 -11 -10 -10 -6 -7 -9 -9 -9 -10 -10 -10 -10 -10 -10 -10 -11 -10 -10 -10 -10 -10 -10 -10 -9 -10 -10 -11 -11 -11 -11 -11 -11 -11 -11
-11 -12 -12 -12 -12 -13 -11 -13 -13 -12 -11 -11 -10 -10 -7 -9 -9 -9 -9 -10 -10 -10 -10 -10 -10 -10 -11 -10 -10 -10 -10 -10 -10 -10 -10 -11 -11 -11 -11 -11 -11 -11 -11 -12
-12 -12 -12 -12 -12 -12 -13 -12 -14 -14 -13 -9 -11 -12 -4 -8 -9 -9 -9 -9 -10 -10 -10 -10 -10 -10 -10 -11 -10 -10 -10 -10 -10 -10 -11 -11 -11 -11 -12 -12 -12 -11 -12 -12
-11 -11 -11 -12 -13 -13 -14 -13 -13 -13 -13 -10 -10 -11 -8 -9 -9 -10 -10 -10 -10 -10 -11 -11 -11 -10 -10 -10 -10 -10 -10 -10 -11 -12 -12 -13 -12 -13 -13 -12 -12 -12 -12 -12
-12 -10 -12 -12 -14 -14 -14 -15 -15 -15 -13 -11 -12 -9 -8 -10 -10 -11 -11 -11 -10 -11 -11 -11 -12 -11 -12 -11 -11 -11 -11 -11 -11 -12 -12 -12 -12 -13 -13 -13 -12 -12 -13 -13
-14 -12 -13 -14 -14 -14 -13 -13 -14 -16 -15 -14 -11 -10 -10 -10 -11 -10 -11 -12 -12 -11 -13 -13 -12 -12 -12 -12 -13 -13 -12 -12 -12 -12 -13 -12 -12 -13 -12 -13 -13 -13 -13 -13
-15 -15 -13 -15 -15 -14 -15 -15 -15 -15 -16 -15 -13 -11 -10 -10 -11 -11 -12 -13 -13 -13 -14 -15 -14 -14 -14 -15 -13 -13 -13 -14 -14 -13 -13 -13 -13 -13 -13 -13 -13 -13 -14 -14
-16 -16 -14 -15 -15 -16 -16 -17 -17 -17 -16 -16 -16 -13 -12 -11 -11 -12 -13 -14 -14 -16 -16 -16 -15 -15 -16 -15 -15 -15 -15 -15 -15 -14 -14 -13 -13 -13 -13 -14 -14 -14 -14 -15
-17 -18 -18 -15 -15 -15 -17 -17 -17 -17 -17 -17 -17 -16 -13 -14 -14 -14 -13 -15 -16 -16 -17 -17 -17 -16 -17 -17 -16 -16 -16 -16 -16 -15 -15 -15 -14 -14 -14 -14 -15 -15 -15 -15
-17 -19 -19 -19 -17 -16 -17 -17 -17 -18 -18 -17 -16 -15 -15 -15 -14 -14 -15 -16 -17 -17 -17 -18 -17 -17 -17 -17 -17 -17 -16 -15 -15 -15 -15 -15 -15 -15 -15 -15 -15 -16 -16 -16
-19 -19 -19 -19 -18 -18 -18 -18 -18 -18 -18 -18 -18 -17 -15 -15 -15 -15 -15 -16 -16 -17 -17 -18 -17 -17 -17 -17 -17 -16 -16 -15 -15 -15 -15 -15 -16 -17 -17 -16 -17 -17 -17 -16
-20 -20 -20 -19 -19 -19 -19 -18 -19 -19 -18 -19 -18 -19 -18 -17 -15 -15 -16 -15 -15 -16 -17 -18 -17 -17 -17 -17 -17 -16 -15 -15 -15 -15 -15 -15 -17 -17 -17 -17 -17 -17 -17 -17
-21 -21 -21 -20 -20 -20 -20 -21 -20 -20 -19 -19 -20 -20 -20 -19 -18 -19 -16 -17 -17 -19 -18 -17 -17 -17 -17 -17 -17 -17 -16 -15 -15 -14 -15 -16 -17 -17 -17 -17 -17 -18 -18 -18
-22 -22 -21 -20 -20 -20 -20 -20 -20 -20 -20 -21 -20 -20 -21 -21 -20 -20 -17 -16 -16 -16 -15 -15 -16 -16 -17 -17 -17 -17 -16 -16 -15 -15 -16 -16 -17 -17 -17 -17 -17 -18 -18 -19
-23 -23 -23 -22 -21 -21 -20 -21 -21 -21 -21 -21 -22 -21 -21 -21 -21 -21 -21 -20 -18 -18 -17 -17 -16 -16 -17 -17 -18 -18 -17 -16 -16 -15 -16 -17 -17 -18 -18 -18 -19 -19 -19 -19
-24 -24 -24 -24 -23 -23 -22 -22 -22 -22 -21 -22 -22 -22 -22 -22 -22 -21 -21 -21 -21 -20 -19 -19 -18 -18 -18 -19 -19 -19 -18 -18 -17 -16 -16 -16 -17 -18 -19 -19 -20 -20 -20 -19
-26 -26 -25 -25 -25 -24 -24 -23 -23 -23 -23 -24 -23 -23 -22 -22 -22 -21 -22 -21 -21 -20 -20 -21 -20 -20 -21 -20 -20 -20 -20 -19 -19 -19 -18 -19 -19 -19 -20 -20 -20 -20 -20 -20
-26 -26 -26 -26 -26 -25 -25 -24 -24 -25 -24 -24 -23 -23 -22 -22 -23 -22 -22 -22 -22 -22 -22 -21 -21 -21 -21 -21 -21 -21 -20 -20 -20 -20 -20 -20 -20 -20 -20 -20 -20 -21 -21 -21
-27 -27 -27 -27 -27 -27 -26 -26 -26 -26 -24 -24 -25 -25 -24 -24 -23 -24 -23 -23 -23 -21 -21 -22 -21 -21 -21 -21 -21 -20 -20 -21 -21 -21 -20 -20 -21 -21 -21 -21 -21 -21 -22 -22
-28 -28 -28 -28 -28 -28 -28 -28 -27 -27 -26 -26 -24 -25 -26 -25 -25 -24 -24 -23 -23 -22 -22 -22 -22 -22 -21 -21 -21 -21 -22 -21 -22 -21 -21 -20 -21 -21 -22 -22 -22 -21 -22 -22
-28 -28 -29 -29 -29 -30 -29 -30 -31 -29 -29 -28 -27 -27 -26 -26 -26 -25 -24 -24 -23 -23 -24 -23 -23 -24 -21 -22 -22 -22 -21 -21 -22 -22 -22 -22 -22 -22 -22 -22 -21 -22 -22 -22
-29 -29 -30 -31 -30 -31 -31 -31 -31 -31 -31 -31 -31 -30 -29 -29 -28 -27 -26 -24 -24 -24 -24 -24 -24 -23 -23 -23 -22 -22 -22 -22 -22 -22 -22 -22 -22 -22 -23 -23 -23 -23 -22 -22
-31 -32 -33 -32 -33 -34 -32 -32 -33 -32 -32 -32 -32 -31 -31 -31 -30 -29 -28 -27 -27 -26 -25 -24 -24 -24 -24 -23 -23 -22 -22 -22 -22 -22 -22 -22 -22 -23 -23 -23 -23 -22 -22 -23

GFSCGP_500_temp_009.txt.gz
Temp
-11 -10 -10 -11 -11 -11 -11 -11 -10 -10 -11 -11 -10 -9 -9 -9 -9 -9 -10 -10 -10 -10 -10 -11 -11 -11 -10 -10 -11 -11 -10 -10 -10 -10 -10 -9 -10 -10 -10 -10 -10 -10 -10 -10
-11 -10 -11 -12 -11 -11 -11 -11 -11 -10 -11 -11 -9 -8 -9 -9 -9 -10 -10 -10 -10 -10 -10 -11 -11 -11 -11 -11 -10 -10 -10 -10 -10 -9 -10 -10 -10 -10 -10 -10 -10 -11 -11 -11
-11 -10 -11 -11 -11 -12 -12 -12 -11 -11 -11 -10 -9 -7 -9 -9 -9 -10 -10 -9 -10 -10 -10 -10 -10 -11 -11 -11 -11 -10 -10 -10 -10 -10 -10 -10 -10 -10 -10 -11 -11 -11 -11 -11
-10 -11 -11 -11 -11 -13 -11 -13 -12 -11 -11 -10 -9 -6 -7 -8 -9 -9 -9 -10 -10 -10 -11 -10 -11 -11 -11 -11 -11 -11 -10 -10 -10 -9 -10 -10 -10 -10 -10 -10 -10 -11 -11 -11
-12 -12 -12 -12 -12 -12 -12 -13 -13 -12 -11 -10 -9 -9 -7 -8 -9 -8 -9 -9 -11 -11 -11 -11 -11 -11 -11 -11 -11 -11 -10 -10 -10 -10 -10 -10 -10 -10 -10 -11 -11 -11 -12 -11
-12 -12 -12 -12 -12 -12 -12 -12 -12 -12 -12 -10 -10 -11 -5 -8 -8 -9 -9 -9 -9 -9 -10 -10 -11 -11 -11 -11 -11 -11 -11 -11 -11 -11 -11 -11 -11 -12 -12 -12 -12 -12 -12 -12
-12 -12 -12 -12 -13 -13 -14 -14 -13 -12 -12 -10 -11 -11 -7 -9 -9 -9 -9 -9 -10 -10 -10 -11 -11 -11 -11 -10 -11 -11 -11 -11 -11 -11 -11 -11 -11 -11 -12 -12 -12 -12 -12 -12
-13 -12 -13 -13 -14 -14 -14 -15 -14 -15 -13 -12 -12 -11 -8 -10 -10 -10 -9 -10 -10 -12 -12 -11 -12 -12 -12 -12 -11 -11 -11 -11 -11 -12 -12 -11 -12 -12 -12 -12 -12 -12 -12 -13
-15 -13 -14 -14 -14 -14 -14 -14 -15 -16 -16 -15 -11 -11 -10 -10 -10 -10 -10 -10 -11 -13 -13 -14 -14 -14 -14 -13 -13 -12 -11 -12 -12 -12 -13 -13 -13 -13 -12 -13 -13 -13 -13 -13
-16 -15 -15 -15 -15 -14 -16 -15 -16 -17 -17 -16 -15 -13 -11 -10 -11 -12 -12 -12 -13 -15 -15 -17 -16 -16 -15 -14 -14 -13 -13 -13 -13 -14 -13 -12 -13 -13 -13 -13 -13 -13 -13 -13
-17 -17 -15 -16 -15 -16 -16 -16 -15 -16 -17 -17 -17 -16 -13 -13 -12 -12 -13 -13 -15 -16 -16 -16 -16 -16 -16 -16 -16 -15 -15 -15 -15 -14 -14 -13 -13 -13 -13 -14 -14 -14 -14 -14
-17 -19 -19 -16 -16 -16 -17 -17 -17 -18 -17 -18 -19 -18 -15 -15 -14 -14 -14 -15 -16 -16 -18 -17 -17 -18 -17 -16 -16 -16 -16 -16 -15 -15 -14 -14 -15 -15 -15 -15 -15 -15 -15 -15
-18 -19 -19 -18 -17 -16 -18 -18 -19 -19 -20 -19 -19 -18 -17 -16 -15 -15 -15 -16 -16 -17 -18 -18 -18 -17 -16 -17 -17 -16 -16 -15 -15 -15 -15 -15 -15 -15 -16 -15 -16 -16 -16 -16
-19 -19 -19 -20 -20 -18 -19 -18 -18 -20 -20 -18 -19 -19 -18 -18 -18 -16 -18 -17 -16 -16 -16 -17 -17 -17 -16 -16 -15 -16 -16 -15 -15 -16 -15 -16 -16 -16 -17 -16 -16 -16 -16 -16
-21 -21 -21 -20 -20 -20 -20 -20 -20 -20 -20 -21 -20 -20 -20 -21 -20 -19 -18 -18 -18 -17 -16 -16 -16 -16 -17 -16 -16 -16 -16 -16 -17 -16 -16 -15 -16 -16 -16 -16 -16 -16 -17 -18
-22 -21 -22 -21 -21 -22 -22 -22 -21 -22 -20 -20 -20 -20 -21 -21 -20 -20 -19 -19 -18 -18 -17 -16 -16 -16 -16 -17 -17 -17 -16 -16 -16 -16 -17 -16 -16 -16 -16 -16 -16 -17 -18 -18
-22 -22 -22 -22 -22 -23 -23 -21 -23 -21 -21 -22 -21 -21 -21 -21 -21 -21 -20 -20 -20 -19 -19 -18 -17 -17 -16 -17 -19 -18 -18 -17 -17 -17 -17 -17 -16 -16 -17 -16 -16 -17 -18 -18
-24 -24 -24 -24 -24 -24 -22 -23 -23 -23 -23 -23 -22 -22 -22 -21 -21 -21 -21 -21 -21 -20 -20 -19 -19 -18 -18 -18 -19 -19 -19 -19 -18 -18 -18 -17 -17 -17 -17 -18 -18 -18 -18 -18
-25 -25 -25 -26 -25 -25 -24 -24 -24 -24 -24 -24 -24 -23 -23 -23 -23 -22 -21 -21 -21 -22 -21 -21 -21 -20 -20 -20 -20 -19 -18 -20 -20 -19 -18 -18 -18 -18 -18 -18 -18 -18 -18 -18
-26 -26 -26 -26 -26 -26 -26 -26 -26 -26 -26 -26 -26 -25 -25 -24 -23 -22 -23 -24 -23 -22 -22 -22 -22 -21 -21 -22 -21 -20 -20 -20 -20 -20 -20 -20 -20 -20 -20 -19 -20 -19 -19 -19
-26 -27 -27 -27 -28 -27 -27 -27 -27 -27 -27 -27 -27 -27 -26 -26 -26 -25 -25 -24 -24 -24 -23 -22 -22 -21 -22 -21 -22 -22 -22 -22 -21 -22 -21 -22 -21 -21 -21 -20 -21 -21 -20 -20
-28 -28 -28 -28 -28 -28 -28 -28 -28 -28 -28 -28 -28 -28 -28 -27 -27 -27 -27 -26 -25 -25 -24 -24 -24 -23 -23 -23 -22 -22 -23 -23 -22 -22 -22 -22 -22 -21 -21 -21 -21 -21 -21 -22
-29 -28 -28 -28 -28 -28 -29 -29 -29 -29 -29 -28 -29 -29 -29 -29 -28 -28 -27 -27 -27 -26 -25 -25 -25 -25 -25 -26 -25 -25 -24 -23 -23 -22 -22 -22 -23 -22 -22 -21 -20 -22 -22 -22
-29 -29 -29 -29 -29 -29 -30 -30 -30 -30 -30 -30 -30 -30 -31 -30 -30 -29 -28 -28 -27 -27 -26 -25 -26 -26 -26 -26 -26 -25 -24 -23 -23 -23 -22 -23 -23 -23 -23 -22 -22 -22 -22 -22
-29 -30 -30 -31 -29 -32 -31 -32 -32 -32 -32 -32 -32 -32 -32 -32 -32 -32 -31 -30 -29 -28 -27 -27 -26 -25 -25 -26 -26 -26 -25 -25 -24 -23 -23 -23 -23 -24 -23 -22 -22 -22 -22 -23
-30 -31 -31 -31 -31 -35 -34 -32 -34 -34 -34 -34 -34 -33 -34 -34 -34 -34 -34 -33 -33 -32 -31 -29 -28 -27 -26 -26 -26 -26 -25 -25 -25 -24 -24 -24 -25 -24 -23 -23 -22 -22 -22 -23

GFSCGP_500_temp_012.txt.gz
Temp
-11 -10 -11 -12 -12 -12 -11 -10 -10 -10 -11 -10 -9 -8 -8 -9 -9 -10 -10 -10 -10 -10 -10 -11 -11 -11 -11 -11 -10 -10 -10 -11 -11 -10 -10 -10 -10 -10 -10 -11 -11 -10 -10 -10
-11 -10 -12 -12 -12 -12 -11 -11 -10 -10 -11 -10 -9 -8 -9 -9 -9 -9 -9 -10 -10 -10 -10 -10 -11 -11 -11 -11 -11 -11 -11 -11 -11 -11 -10 -10 -10 -10 -10 -10 -11 -10 -10 -10
-11 -11 -11 -12 -12 -12 -12 -12 -11 -10 -10 -10 -9 -7 -8 -9 -9 -9 -10 -10 -10 -9 -10 -10 -10 -10 -11 -11 -11 -11 -11 -11 -11 -11 -10 -10 -10 -10 -10 -10 -11 -10 -10 -10
-11 -12 -12 -12 -12 -13 -12 -13 -12 -11 -11 -10 -9 -6 -7 -8 -9 -9 -9 -9 -10 -10 -10 -10 -11 -11 -11 -11 -11 -11 -11 -10 -10 -10 -11 -10 -10 -10 -10 -10 -10 -10 -10 -11
-13 -13 -13 -12 -13 -13 -12 -13 -13 -12 -12 -11 -10 -10 -8 -8 -9 -9 -10 -10 -10 -11 -11 -11 -11 -11 -12 -11 -11 -11 -12 -11 -11 -11 -11 -11 -11 -10 -10 -10 -11 -11 -11 -11
-13 -13 -13 -13 -13 -13 -13 -13 -13 -13 -12 -11 -11 -11 -7 -9 -9 -10 -10 -10 -10 -10 -10 -10 -10 -11 -11 -11 -11 -11 -12 -12 -12 -11 -11 -11 -11 -11 -11 -11 -11 -11 -11 -11
-14 -13 -13 -13 -13 -14 -14 -14 -14 -13 -13 -12 -12 -11 -9 -10 -10 -10 -11 -11 -11 -12 -12 -12 -11 -11 -11 -11 -10 -11 -11 -11 -11 -12 -11 -11 -11 -11 -11 -11 -11 -12 -11 -12
-14 -13 -13 -14 -15 -15 -15 -15 -15 -15 -14 -13 -13 -11 -9 -10 -10 -11 -12 -12 -12 -13 -14 -14 -13 -13 -11 -11 -11 -11 -11 -11 -11 -11 -12 -12 -11 -11 -11 -11 -11 -12 -13 -13
-15 -13 -13 -14 -15 -14 -15 -16 -16 -16 -16 -16 -13 -12 -11 -11 -11 -12 -13 -14 -14 -15 -14 -14 -14 -14 -14 -13 -13 -14 -14 -12 -11 -12 -12 -12 -12 -12 -13 -13 -13 -14 -13 -14
-16 -15 -14 -15 -15 -15 -16 -16 -16 -17 -18 -17 -15 -14 -12 -11 -12 -14 -14 -15 -16 -16 -16 -16 -16 -15 -15 -14 -15 -15 -14 -14 -14 -13 -13 -12 -13 -13 -14 -15 -15 -15 -15 -14
-17 -17 -15 -15 -14 -16 -17 -17 -17 -18 -19 -18 -18 -17 -14 -14 -14 -14 -15 -16 -16 -15 -15 -15 -17 -16 -15 -16 -16 -16 -16 -15 -14 -14 -14 -13 -12 -12 -13 -14 -15 -16 -16 -15
-18 -19 -19 -17 -17 -17 -18 -18 -18 -19 -19 -19 -20 -19 -17 -16 -16 -16 -18 -17 -16 -16 -15 -16 -16 -17 -16 -16 -16 -16 -17 -16 -15 -15 -15 -15 -14 -13 -13 -13 -15 -16 -16 -16
-19 -20 -20 -20 -19 -18 -19 -19 -20 -19 -19 -20 -20 -19 -19 -19 -18 -17 -17 -16 -16 -16 -15 -15 -16 -17 -18 -17 -17 -17 -16 -17 -17 -17 -16 -16 -15 -14 -15 -15 -16 -15 -15 -17
-20 -21 -21 -21 -20 -20 -20 -20 -21 -21 -20 -20 -20 -20 -20 -20 -20 -19 -18 -18 -18 -18 -17 -16 -16 -16 -17 -18 -18 -17 -17 -17 -17 -17 -17 -17 -16 -16 -16 -16 -16 -16 -16 -15
-21 -21 -21 -21 -21 -22 -22 -21 -21 -20 -21 -22 -22 -22 -22 -21 -21 -21 -21 -20 -19 -19 -19 -18 -18 -17 -16 -16 -17 -17 -18 -18 -17 -17 -16 -17 -17 -17 -17 -16 -17 -17 -17 -16
-22 -22 -22 -22 -22 -23 -23 -23 -22 -21 -22 -22 -22 -22 -22 -22 -22 -22 -21 -21 -21 -20 -20 -19 -19 -19 -19 -19 -19 -19 -19 -19 -19 -19 -19 -18 -18 -17 -17 -17 -17 -16 -16 -16
-23 -23 -23 -23 -23 -24 -24 -22 -23 -23 -23 -23 -23 -23 -23 -23 -23 -23 -22 -22 -22 -21 -22 -20 -20 -20 -20 -20 -19 -19 -19 -19 -19 -19 -19 -19 -19 -19 -18 -18 -18 -17 -17 -17
-23 -24 -24 -24 -24 -24 -23 -23 -23 -23 -24 -24 -24 -24 -24 -24 -24 -24 -24 -23 -23 -22 -22 -21 -21 -20 -20 -20 -20 -20 -19 -19 -19 -19 -20 -19 -20 -19 -19 -18 -19 -18 -18 -18
-25 -25 -25 -25 -25 -25 -25 -25 -25 -26 -25 -26 -26 -26 -26 -26 -26 -26 -26 -25 -25 -24 -24 -22 -22 -22 -22 -22 -21 -21 -20 -20 -19 -20 -20 -21 -21 -20 -20 -19 -19 -19 -18 -18
-26 -26 -26 -26 -26 -26 -26 -26 -26 -26 -26 -26 -27 -27 -27 -27 -27 -27 -27 -27 -27 -26 -26 -24 -24 -22 -22 -22 -22 -22 -21 -21 -21 -21 -20 -20 -20 -19 -19 -20 -20 -20 -19 -19
-27 -27 -28 -27 -28 -27 -27 -27 -27 -28 -28 -28 -28 -28 -28 -28 -28 -28 -28 -28 -28 -27 -27 -27 -27 -26 -25 -25 -24 -24 -23 -22 -23 -23 -21 -21 -22 -21 -21 -21 -21 -21 -21 -21
-28 -28 -28 -28 -29 -29 -29 -29 -29 -29 -29 -29 -28 -29 -29 -29 -28 -29 -29 -28 -28 -28 -28 -28 -28 -27 -27 -27 -27 -26 -26 -25 -24 -24 -23 -22 -22 -23 -22 -22 -22 -22 -22 -23
-30 -29 -30 -30 -29 -29 -29 -30 -30 -30 -30 -29 -29 -29 -30 -29 -29 -29 -29 -29 -29 -29 -28 -28 -28 -28 -27 -27 -28 -27 -27 -26 -25 -25 -24 -24 -23 -23 -23 -23 -23 -22 -22 -22
-30 -30 -30 -30 -29 -30 -30 -31 -31 -31 -31 -30 -30 -30 -30 -31 -31 -31 -30 -30 -30 -30 -30 -30 -30 -29 -28 -28 -28 -28 -27 -27 -26 -25 -24 -25 -24 -24 -24 -25 -24 -24 -24 -22
-30 -30 -30 -31 -30 -31 -31 -31 -32 -32 -31 -32 -32 -32 -32 -33 -33 -33 -32 -32 -32 -32 -32 -32 -32 -31 -30 -30 -29 -29 -28 -28 -27 -26 -25 -25 -25 -25 -25 -25 -25 -25 -24 -24
-31 -31 -32 -31 -31 -33 -32 -31 -33 -33 -34 -34 -34 -34 -35 -35 -35 -35 -34 -34 -34 -34 -34 -34 -33 -33 -33 -32 -31 -31 -30 -29 -28 -27 -26 -26 -25 -25 -25 -25 -25 -25 -25 -24

GFSCGP_500_temp_015.txt.gz
Temp
-11 -10 -11 -11 -11 -11 -10 -10 -10 -10 -11 -10 -9 -9 -9 -10 -10 -10 -10 -10 -10 -11 -11 -10 -10 -11 -11 -11 -11 -11 -10 -10 -10 -10 -10 -10 -10 -10 -10 -11 -11 -11 -11 -11
-11 -10 -11 -11 -11 -11 -11 -10 -10 -10 -11 -10 -9 -8 -9 -10 -10 -10 -10 -11 -10 -10 -11 -11 -10 -10 -11 -11 -11 -11 -11 -10 -10 -10 -10 -10 -10 -10 -10 -11 -11 -11 -11 -11
-11 -11 -11 -11 -11 -12 -12 -12 -11 -10 -10 -10 -8 -8 -8 -9 -10 -10 -10 -11 -11 -10 -11 -11 -11 -11 -11 -11 -11 -11 -10 -11 -11 -11 -11 -10 -10 -10 -10 -10 -11 -11 -11 -11
-12 -12 -12 -12 -12 -13 -11 -13 -12 -11 -11 -10 -9 -7 -8 -9 -9 -10 -10 -10 -11 -11 -11 -12 -11 -12 -11 -11 -11 -11 -11 -11 -11 -11 -11 -11 -11 -11 -10 -10 -11 -11 -11 -11
-13 -14 -14 -13 -13 -13 -12 -13 -13 -12 -12 -10 -9 -9 -8 -9 -10 -11 -11 -11 -12 -13 -12 -11 -11 -11 -11 -11 -11 -11 -11 -12 -11 -12 -11 -11 -11 -11 -11 -11 -11 -11 -11 -11
-14 -14 -14 -15 -14 -14 -13 -13 -13 -13 -13 -11 -10 -11 -8 -9 -11 -12 -13 -15 -14 -13 -13 -12 -11 -11 -11 -10 -11 -11 -11 -11 -12 -12 -12 -12 -11 -11 -11 -11 -11 -11 -11 -11
-14 -14 -14 -15 -15 -15 -15 -15 -14 -14 -13 -12 -12 -11 -10 -11 -12 -13 -14 -14 -13 -14 -13 -12 -12 -12 -12 -12 -11 -11 -11 -11 -12 -11 -11 -11 -12 -12 -12 -11 -11 -11 -11 -11
-15 -13 -14 -15 -15 -15 -15 -16 -16 -16 -14 -13 -14 -11 -10 -11 -12 -14 -14 -14 -14 -14 -14 -13 -13 -13 -13 -13 -13 -12 -12 -11 -11 -11 -11 -11 -12 -11 -11 -11 -11 -11 -11 -11
-17 -14 -15 -15 -16 -16 -16 -16 -17 -17 -17 -16 -13 -12 -11 -12 -14 -14 -15 -14 -15 -15 -15 -14 -13 -13 -13 -14 -15 -14 -14 -14 -13 -13 -13 -12 -11 -12 -12 -12 -11 -11 -11 -11
-18 -17 -16 -17 -16 -16 -18 -17 -17 -17 -18 -18 -16 -15 -12 -13 -15 -15 -15 -15 -15 -15 -15 -16 -15 -15 -15 -14 -15 -15 -16 -17 -16 -16 -15 -14 -14 -13 -13 -12 -12 -12 -12 -12
-19 -20 -18 -19 -16 -18 -18 -18 -19 -19 -20 -19 -19 -18 -14 -15 -16 -15 -15 -15 -15 -15 -15 -16 -16 -16 -16 -16 -15 -16 -16 -17 -17 -17 -16 -15 -15 -15 -14 -14 -14 -13 -13 -13
-19 -20 -20 -19 -19 -19 -19 -20 -20 -20 -20 -20 -20 -20 -18 -18 -18 -18 -18 -18 -17 -17 -17 -17 -16 -16 -16 -16 -16 -17 -18 -18 -18 -17 -17 -17 -17 -16 -16 -15 -15 -16 -15 -16
-21 -21 -21 -20 -20 -19 -20 -20 -20 -21 -21 -20 -20 -20 -20 -20 -19 -18 -18 -17 -17 -19 -19 -18 -18 -18 -18 -17 -17 -17 -18 -18 -18 -18 -18 -17 -17 -17 -17 -17 -17 -17 -17 -17
-21 -21 -21 -21 -20 -21 -21 -22 -21 -21 -21 -21 -21 -21 -22 -22 -22 -21 -21 -20 -20 -19 -19 -19 -19 -19 -19 -19 -18 -18 -18 -19 -19 -18 -18 -18 -18 -18 -18 -18 -17 -17 -17 -18
-22 -21 -22 -22 -22 -22 -22 -22 -22 -21 -21 -21 -22 -23 -22 -22 -22 -22 -22 -22 -21 -20 -20 -20 -20 -20 -20 -20 -20 -20 -19 -19 -19 -19 -19 -19 -19 -19 -19 -19 -18 -18 -18 -18
-23 -23 -23 -22 -22 -23 -23 -22 -22 -22 -22 -23 -23 -22 -23 -23 -23 -23 -23 -23 -23 -22 -22 -22 -21 -21 -21 -21 -20 -20 -20 -20 -20 -20 -19 -19 -19 -19 -19 -19 -19 -19 -19 -19
-23 -23 -24 -23 -23 -24 -24 -23 -23 -24 -23 -24 -24 -24 -25 -25 -24 -24 -24 -23 -23 -23 -23 -23 -22 -22 -22 -22 -22 -21 -21 -21 -20 -21 -21 -20 -19 -19 -19 -20 -19 -19 -19 -20
-24 -25 -25 -25 -25 -25 -24 -24 -24 -24 -24 -24 -25 -25 -25 -25 -25 -25 -25 -25 -24 -24 -24 -24 -24 -24 -24 -23 -23 -22 -22 -21 -21 -21 -22 -22 -22 -21 -21 -20 -20 -21 -20 -20
-26 -26 -27 -27 -26 -26 -25 -25 -26 -25 -25 -25 -26 -26 -26 -26 -26 -26 -26 -26 -26 -26 -26 -26 -26 -26 -25 -25 -24 -23 -23 -23 -22 -22 -22 -22 -22 -22 -22 -21 -21 -21 -21 -21
-28 -28 -28 -28 -28 -27 -27 -27 -26 -27 -27 -27 -27 -27 -27 -27 -27 -27 -27 -28 -28 -28 -28 -28 -28 -28 -28 -28 -27 -27 -26 -25 -24 -24 -23 -23 -22 -22 -22 -22 -22 -21 -20 -20
-28 -29 -29 -29 -29 -29 -29 -29 -28 -29 -29 -29 -29 -29 -28 -28 -29 -28 -28 -28 -29 -29 -29 -29 -29 -29 -29 -29 -28 -28 -28 -28 -27 -26 -25 -24 -23 -23 -23 -23 -23 -22 -22 -21
-30 -30 -30 -30 -30 -30 -30 -30 -30 -30 -30 -30 -30 -30 -30 -30 -29 -29 -29 -29 -29 -29 -29 -29 -29 -29 -29 -29 -29 -28 -28 -28 -28 -27 -27 -26 -25 -24 -24 -24 -23 -24 -22 -22
-30 -30 -31 -31 -31 -31 -30 -31 -31 -31 -31 -30 -30 -30 -30 -30 -30 -30 -30 -30 -30 -30 -30 -30 -30 -30 -30 -30 -30 -29 -29 -29 -28 -28 -28 -27 -27 -26 -26 -24 -24 -25 -25 -23
-31 -31 -31 -31 -31 -31 -31 -31 -31 -31 -31 -31 -31 -31 -31 -31 -31 -31 -31 -31 -31 -31 -32 -32 -32 -32 -31 -32 -32 -31 -31 -31 -30 -29 -28 -28 -27 -27 -27 -27 -26 -26 -26 -26
-31 -31 -31 -31 -31 -32 -31 -32 -32 -31 -32 -32 -32 -32 -32 -32 -32 -33 -33 -33 -33 -33 -33 -33 -33 -33 -33 -33 -33 -33 -32 -32 -31 -31 -30 -29 -29 -28 -27 -27 -27 -27 -27 -26
-31 -31 -32 -31 -32 -33 -32 -32 -32 -32 -32 -33 -33 -33 -34 -34 -34 -34 -34 -35 -35 -34 -34 -34 -34 -34 -34 -33 -33 -33 -33 -33 -32 -31 -31 -31 -30 -30 -29 -28 -28 -27 -27 -27

GFSCGP_500_temp_021.txt.gz
Temp
-11 -11 -11 -11 -11 -11 -11 -11 -11 -11 -11 -10 -10 -9 -10 -10 -10 -11 -11 -11 -11 -10 -10 -10 -10 -10 -10 -10 -10 -11 -11 -10 -10 -10 -11 -11 -11 -11 -11 -11 -11 -11 -12 -12
-11 -11 -11 -12 -12 -11 -11 -11 -10 -11 -11 -10 -10 -9 -10 -10 -11 -11 -12 -11 -11 -10 -10 -10 -10 -10 -10 -11 -11 -11 -11 -11 -11 -10 -10 -11 -11 -11 -11 -11 -11 -11 -11 -12
-11 -11 -11 -11 -12 -12 -12 -11 -11 -11 -11 -11 -10 -10 -10 -11 -11 -11 -11 -11 -10 -11 -11 -11 -11 -11 -11 -11 -11 -11 -11 -10 -11 -11 -11 -11 -11 -11 -11 -11 -11 -11 -11 -11
-11 -12 -12 -12 -12 -12 -12 -12 -12 -12 -12 -12 -11 -10 -11 -12 -12 -12 -12 -11 -11 -11 -11 -11 -11 -11 -10 -11 -11 -11 -12 -12 -11 -12 -12 -12 -12 -11 -11 -11 -11 -11 -11 -11
-13 -13 -13 -13 -13 -13 -13 -13 -13 -13 -13 -13 -13 -13 -11 -12 -12 -11 -12 -13 -13 -13 -13 -12 -12 -12 -11 -11 -12 -12 -12 -12 -13 -12 -12 -12 -12 -12 -12 -11 -11 -11 -11 -11
-14 -13 -14 -14 -14 -14 -14 -13 -13 -14 -14 -12 -13 -13 -13 -13 -14 -12 -13 -13 -14 -15 -15 -14 -14 -13 -12 -12 -12 -13 -13 -13 -13 -13 -13 -13 -12 -12 -12 -12 -12 -11 -12 -12
-14 -14 -14 -15 -14 -15 -15 -15 -14 -14 -15 -13 -15 -13 -13 -14 -14 -14 -15 -15 -16 -16 -16 -15 -15 -14 -14 -14 -14 -14 -14 -13 -13 -13 -13 -13 -13 -13 -13 -13 -12 -12 -12 -12
-15 -14 -15 -14 -15 -16 -16 -16 -16 -16 -15 -15 -15 -14 -13 -15 -14 -14 -15 -16 -16 -17 -17 -17 -16 -16 -15 -15 -16 -16 -15 -14 -14 -14 -13 -13 -13 -14 -14 -13 -14 -14 -13 -13
-16 -15 -16 -16 -16 -16 -17 -17 -17 -17 -17 -16 -15 -15 -15 -16 -15 -15 -15 -15 -15 -15 -16 -16 -16 -16 -16 -16 -16 -16 -16 -16 -15 -15 -14 -14 -14 -14 -14 -14 -14 -14 -14 -14
-17 -16 -16 -17 -17 -17 -18 -18 -18 -18 -19 -19 -17 -16 -16 -17 -17 -16 -16 -16 -16 -16 -17 -18 -18 -18 -18 -19 -19 -18 -17 -17 -17 -17 -17 -16 -16 -16 -16 -16 -15 -15 -15 -15
-18 -18 -17 -17 -17 -18 -19 -18 -19 -19 -19 -19 -20 -19 -18 -18 -19 -18 -18 -18 -18 -18 -18 -19 -19 -19 -19 -19 -19 -19 -18 -18 -18 -18 -18 -18 -18 -18 -18 -17 -17 -16 -16 -16
-19 -20 -19 -18 -18 -19 -19 -19 -20 -21 -20 -20 -21 -20 -20 -19 -19 -20 -20 -20 -21 -20 -20 -20 -20 -20 -20 -19 -20 -19 -19 -19 -19 -19 -19 -19 -19 -19 -19 -18 -18 -19 -18 -17
-20 -20 -21 -19 -19 -19 -21 -21 -21 -21 -22 -22 -21 -21 -21 -21 -21 -20 -21 -20 -20 -21 -20 -21 -21 -20 -20 -20 -20 -19 -20 -20 -20 -20 -20 -20 -20 -20 -20 -19 -20 -20 -20 -19
-20 -20 -20 -21 -21 -21 -22 -22 -22 -22 -22 -22 -22 -22 -22 -21 -22 -22 -21 -21 -21 -21 -22 -20 -21 -21 -20 -20 -21 -21 -21 -21 -21 -21 -21 -21 -21 -21 -21 -20 -20 -19 -19 -20
-22 -22 -22 -22 -22 -23 -23 -23 -23 -23 -23 -23 -23 -23 -23 -23 -23 -23 -24 -23 -22 -21 -21 -21 -21 -21 -22 -22 -22 -22 -22 -22 -22 -22 -21 -21 -21 -21 -22 -22 -21 -21 -21 -20
-23 -23 -23 -23 -23 -24 -24 -23 -23 -23 -23 -24 -24 -24 -24 -24 -24 -24 -24 -24 -23 -23 -23 -23 -23 -22 -22 -22 -22 -23 -23 -23 -23 -23 -23 -23 -22 -22 -22 -22 -23 -23 -23 -22
-23 -24 -24 -24 -24 -24 -24 -22 -24 -24 -23 -24 -25 -25 -25 -25 -26 -26 -26 -26 -26 -25 -25 -25 -25 -24 -24 -24 -24 -24 -24 -24 -24 -24 -24 -24 -24 -23 -23 -23 -23 -23 -23 -23
-24 -24 -25 -24 -25 -24 -23 -24 -24 -24 -24 -25 -27 -27 -28 -28 -28 -27 -27 -27 -27 -28 -28 -27 -27 -27 -27 -26 -26 -26 -25 -25 -25 -25 -25 -25 -24 -24 -24 -24 -24 -23 -23 -23
-25 -25 -25 -25 -25 -25 -24 -25 -26 -26 -26 -28 -28 -29 -29 -29 -29 -29 -30 -29 -29 -29 -29 -29 -29 -28 -28 -28 -28 -28 -27 -27 -27 -27 -26 -26 -26 -26 -26 -26 -26 -25 -25 -24
-25 -25 -26 -26 -26 -26 -26 -27 -28 -29 -28 -29 -30 -30 -30 -30 -30 -30 -30 -30 -30 -30 -30 -30 -30 -30 -30 -30 -30 -30 -29 -29 -29 -29 -29 -29 -29 -28 -28 -28 -28 -28 -28 -27
-26 -26 -26 -27 -28 -28 -27 -29 -30 -30 -30 -30 -30 -30 -31 -31 -31 -31 -31 -31 -31 -31 -31 -31 -31 -31 -30 -30 -30 -30 -30 -30 -30 -30 -29 -29 -29 -29 -29 -29 -29 -29 -28 -28
-27 -27 -27 -29 -29 -29 -29 -30 -31 -31 -31 -31 -31 -31 -31 -31 -31 -31 -31 -31 -31 -31 -31 -31 -31 -31 -31 -31 -31 -30 -30 -30 -30 -29 -29 -28 -28 -28 -28 -28 -28 -28 -28 -28
-28 -28 -30 -30 -31 -31 -31 -31 -31 -31 -31 -31 -32 -31 -32 -32 -32 -32 -32 -32 -32 -32 -32 -32 -32 -32 -32 -32 -32 -31 -31 -31 -30 -30 -30 -29 -29 -29 -29 -29 -29 -28 -28 -28
-30 -29 -31 -31 -31 -31 -32 -32 -32 -32 -32 -32 -32 -32 -32 -32 -32 -32 -32 -32 -32 -33 -33 -33 -33 -33 -33 -33 -33 -33 -32 -32 -31 -30 -30 -31 -30 -30 -30 -30 -30 -30 -30 -29
-30 -32 -32 -33 -32 -32 -32 -32 -33 -33 -32 -32 -32 -32 -32 -32 -32 -32 -33 -33 -33 -34 -35 -35 -35 -34 -34 -34 -34 -34 -33 -32 -32 -32 -31 -31 -30 -30 -30 -30 -29 -30 -30 -30
-31 -32 -33 -33 -32 -33 -32 -32 -33 -33 -32 -32 -32 -32 -33 -33 -33 -33 -34 -34 -35 -36 -36 -36 -35 -35 -35 -34 -34 -34 -33 -33 -32 -31 -30 -30 -29 -29 -29 -29 -30 -30 -30 -30

GFSCGP_500_temp_024.txt.gz
Temp
-11 -11 -11 -11 -11 -11 -11 -11 -10 -11 -11 -11 -10 -10 -10 -11 -11 -11 -11 -10 -10 -10 -11 -10 -10 -10 -11 -10 -11 -11 -11 -11 -11 -11 -11 -11 -11 -11 -11 -11 -11 -11 -11 -12
-11 -11 -11 -11 -11 -11 -11 -11 -11 -11 -11 -11 -11 -11 -11 -11 -12 -12 -11 -11 -11 -11 -11 -11 -11 -11 -11 -11 -11 -11 -11 -11 -11 -11 -11 -11 -11 -11 -11 -11 -11 -11 -11 -11
-11 -11 -11 -11 -11 -11 -12 -12 -12 -12 -12 -12 -12 -11 -12 -12 -12 -11 -11 -12 -12 -11 -11 -11 -11 -11 -11 -11 -11 -11 -11 -11 -11 -11 -11 -11 -11 -11 -11 -12 -12 -12 -12 -11
-11 -12 -12 -12 -12 -12 -12 -12 -12 -12 -12 -12 -12 -11 -12 -13 -12 -11 -11 -14 -14 -13 -13 -12 -12 -12 -11 -11 -11 -11 -11 -11 -12 -13 -13 -13 -13 -13 -12 -12 -12 -12 -12 -12
-13 -12 -13 -13 -13 -13 -13 -13 -13 -13 -13 -13 -13 -13 -12 -13 -13 -13 -13 -14 -14 -14 -15 -15 -15 -14 -13 -13 -13 -12 -12 -12 -13 -13 -14 -14 -13 -13 -13 -13 -12 -12 -12 -12
-13 -12 -13 -14 -14 -14 -14 -13 -14 -14 -14 -13 -14 -13 -12 -13 -14 -14 -15 -15 -15 -16 -16 -15 -16 -16 -15 -15 -14 -14 -13 -13 -13 -14 -14 -14 -14 -14 -13 -13 -12 -12 -13 -12
-14 -14 -14 -14 -14 -14 -15 -15 -15 -14 -14 -14 -14 -13 -13 -14 -14 -14 -15 -15 -16 -16 -17 -17 -17 -17 -17 -16 -16 -15 -15 -14 -14 -15 -15 -15 -14 -14 -14 -14 -14 -14 -13 -13
-15 -14 -15 -15 -15 -15 -15 -16 -16 -16 -15 -15 -14 -14 -14 -15 -16 -16 -16 -15 -16 -16 -16 -17 -18 -18 -18 -17 -17 -16 -16 -16 -16 -16 -16 -15 -15 -15 -15 -15 -14 -14 -14 -14
-16 -15 -16 -15 -15 -16 -16 -16 -17 -17 -16 -16 -15 -15 -15 -16 -16 -16 -16 -16 -17 -17 -17 -17 -17 -17 -17 -17 -17 -17 -17 -16 -15 -15 -16 -16 -16 -16 -16 -16 -15 -15 -15 -15
-16 -16 -17 -17 -16 -17 -18 -18 -18 -18 -19 -18 -17 -17 -16 -17 -18 -18 -18 -18 -18 -18 -18 -18 -18 -18 -18 -18 -18 -18 -18 -18 -17 -17 -17 -17 -17 -17 -17 -17 -16 -16 -16 -16
-17 -17 -17 -17 -18 -18 -18 -18 -18 -19 -19 -19 -19 -18 -18 -18 -18 -18 -19 -19 -19 -19 -20 -20 -19 -20 -20 -20 -20 -20 -20 -20 -20 -19 -19 -19 -18 -18 -19 -19 -18 -18 -18 -17
-19 -19 -18 -18 -18 -19 -19 -19 -19 -19 -19 -20 -21 -21 -20 -20 -20 -20 -21 -21 -20 -20 -20 -21 -21 -21 -21 -21 -21 -21 -21 -21 -21 -20 -20 -20 -20 -20 -20 -20 -20 -20 -19 -19
-19 -19 -19 -19 -19 -20 -20 -20 -20 -21 -21 -21 -22 -21 -21 -22 -22 -21 -21 -21 -21 -21 -21 -21 -22 -22 -21 -21 -21 -21 -21 -21 -20 -20 -20 -20 -20 -20 -20 -20 -20 -20 -20 -20
-20 -20 -20 -20 -20 -20 -21 -21 -21 -22 -23 -22 -22 -22 -22 -23 -23 -23 -23 -22 -22 -22 -22 -22 -22 -22 -22 -22 -21 -21 -21 -22 -22 -22 -22 -22 -22 -22 -21 -21 -21 -21 -21 -21
-21 -20 -21 -21 -21 -21 -21 -21 -21 -22 -23 -23 -23 -24 -23 -23 -24 -24 -23 -23 -23 -23 -23 -23 -22 -22 -22 -22 -22 -22 -22 -22 -23 -22 -22 -22 -22 -23 -23 -23 -22 -22 -22 -21
-21 -21 -22 -21 -22 -23 -23 -21 -22 -23 -23 -24 -24 -24 -24 -24 -24 -24 -24 -24 -24 -24 -24 -24 -24 -24 -24 -24 -24 -25 -25 -25 -24 -24 -24 -24 -24 -24 -24 -24 -24 -24 -23 -23
-22 -22 -23 -22 -23 -24 -23 -22 -24 -24 -24 -24 -24 -24 -24 -24 -24 -24 -24 -25 -25 -25 -26 -27 -27 -27 -27 -27 -26 -26 -26 -25 -25 -25 -25 -25 -25 -25 -25 -24 -24 -24 -24 -24
-23 -23 -24 -24 -24 -24 -23 -24 -24 -25 -24 -24 -25 -25 -25 -26 -26 -26 -27 -27 -27 -28 -29 -29 -29 -29 -29 -29 -29 -29 -29 -29 -28 -28 -28 -27 -27 -27 -27 -26 -26 -26 -25 -25
-24 -25 -25 -25 -25 -25 -24 -25 -26 -26 -25 -25 -26 -27 -27 -27 -27 -28 -29 -29 -29 -30 -30 -30 -30 -30 -31 -31 -30 -30 -30 -30 -30 -30 -30 -29 -29 -29 -29 -28 -28 -28 -28 -28
-24 -25 -25 -25 -26 -26 -25 -25 -26 -27 -26 -27 -28 -28 -29 -29 -29 -29 -30 -30 -31 -31 -31 -31 -31 -31 -31 -31 -31 -31 -31 -31 -30 -30 -30 -30 -30 -30 -30 -29 -29 -29 -29 -29
-25 -26 -26 -26 -27 -26 -26 -26 -27 -29 -29 -28 -29 -30 -30 -30 -30 -30 -30 -31 -31 -31 -31 -31 -31 -31 -31 -31 -31 -31 -31 -31 -31 -30 -30 -30 -30 -30 -29 -29 -28 -28 -28 -28
-26 -26 -26 -27 -27 -27 -27 -28 -29 -30 -30 -31 -31 -31 -31 -31 -31 -31 -31 -31 -31 -31 -31 -31 -31 -31 -31 -31 -31 -31 -31 -31 -31 -30 -30 -30 -30 -30 -29 -29 -29 -29 -28 -28
-27 -27 -28 -28 -29 -29 -30 -31 -32 -32 -32 -32 -32 -32 -32 -32 -32 -32 -32 -32 -31 -31 -32 -32 -32 -32 -32 -32 -32 -32 -32 -32 -32 -32 -31 -31 -31 -30 -30 -30 -30 -30 -30 -29
-28 -27 -28 -29 -29 -31 -32 -33 -33 -33 -33 -32 -32 -32 -32 -32 -32 -32 -32 -32 -32 -32 -33 -33 -33 -33 -33 -34 -34 -34 -34 -33 -32 -32 -32 -31 -31 -31 -31 -31 -30 -30 -30 -29
-28 -28 -29 -30 -32 -33 -33 -33 -33 -33 -33 -32 -33 -33 -32 -33 -33 -33 -33 -33 -33 -33 -33 -33 -34 -34 -35 -35 -35 -35 -35 -34 -34 -33 -33 -32 -31 -31 -31 -31 -31 -31 -31 -31
-29 -30 -31 -32 -33 -34 -34 -33 -33 -33 -33 -33 -33 -33 -33 -33 -33 -33 -33 -33 -33 -33 -34 -35 -36 -36 -36 -36 -36 -35 -35 -35 -35 -34 -33 -32 -31 -31 -31 -31 -32 -32 -32 -32

GFSCGP_500_temp_027.txt.gz
Temp
-11 -11 -11 -11 -11 -11 -11 -10 -10 -11 -11 -10 -11 -10 -11 -11 -12 -11 -11 -11 -11 -11 -11 -11 -11 -11 -11 -11 -12 -11 -11 -11 -12 -11 -11 -11 -11 -11 -11 -12 -12 -12 -12 -12
-11 -11 -11 -11 -11 -11 -11 -11 -11 -11 -11 -11 -11 -11 -11 -12 -11 -11 -12 -12 -12 -11 -11 -11 -11 -11 -11 -11 -11 -11 -12 -12 -12 -12 -12 -12 -12 -12 -12 -12 -12 -12 -12 -12
-11 -11 -12 -11 -11 -12 -12 -12 -12 -11 -12 -12 -11 -11 -12 -13 -12 -13 -12 -12 -12 -12 -12 -12 -12 -11 -11 -11 -12 -12 -12 -12 -12 -12 -12 -12 -12 -12 -12 -12 -12 -12 -12 -13
-11 -12 -12 -12 -12 -12 -12 -12 -12 -12 -12 -12 -12 -11 -11 -12 -12 -13 -13 -12 -13 -13 -14 -14 -13 -13 -12 -12 -12 -12 -12 -12 -13 -13 -13 -13 -13 -13 -13 -13 -13 -13 -12 -12
-12 -12 -13 -13 -13 -13 -13 -13 -13 -13 -13 -12 -13 -12 -12 -12 -13 -13 -13 -14 -14 -14 -15 -15 -15 -15 -14 -14 -14 -13 -13 -14 -14 -14 -13 -14 -14 -14 -14 -14 -14 -14 -13 -13
-13 -12 -13 -13 -14 -14 -13 -14 -14 -14 -14 -13 -13 -13 -12 -13 -13 -14 -14 -14 -15 -15 -16 -16 -16 -16 -16 -16 -16 -16 -15 -14 -15 -15 -15 -14 -14 -15 -15 -15 -15 -15 -14 -14
-13 -14 -14 -14 -14 -14 -15 -15 -15 -14 -14 -14 -14 -14 -13 -14 -14 -14 -14 -14 -15 -16 -16 -17 -16 -16 -16 -16 -17 -17 -17 -16 -16 -15 -15 -15 -15 -15 -15 -15 -15 -16 -15 -15
-14 -15 -15 -15 -15 -15 -16 -16 -16 -16 -15 -15 -15 -14 -15 -15 -15 -15 -15 -16 -16 -17 -17 -17 -17 -17 -17 -17 -17 -18 -18 -18 -18 -17 -16 -16 -15 -15 -17 -16 -16 -16 -16 -16
-16 -15 -15 -15 -15 -16 -15 -16 -16 -16 -16 -16 -15 -15 -15 -16 -16 -16 -17 -16 -16 -17 -17 -17 -17 -17 -18 -18 -19 -18 -18 -19 -18 -18 -18 -18 -17 -17 -17 -17 -17 -17 -17 -17
-16 -16 -16 -16 -16 -16 -16 -16 -17 -17 -18 -17 -17 -17 -17 -17 -18 -18 -18 -18 -18 -18 -18 -18 -19 -19 -19 -20 -20 -20 -19 -19 -19 -19 -19 -19 -19 -18 -18 -18 -19 -19 -18 -17
-16 -16 -16 -16 -17 -18 -18 -18 -18 -19 -19 -19 -19 -18 -18 -19 -19 -19 -19 -19 -19 -19 -19 -19 -20 -20 -21 -22 -21 -20 -20 -21 -20 -20 -20 -20 -21 -21 -20 -20 -19 -19 -19 -19
-17 -17 -17 -17 -18 -18 -18 -19 -19 -19 -19 -20 -20 -20 -19 -20 -20 -20 -21 -21 -21 -21 -21 -21 -21 -21 -22 -21 -21 -21 -22 -22 -21 -21 -21 -21 -21 -21 -21 -21 -21 -21 -20 -20
-18 -18 -17 -17 -19 -19 -20 -20 -20 -20 -20 -20 -21 -20 -21 -21 -22 -22 -22 -22 -22 -22 -22 -22 -22 -22 -22 -22 -22 -23 -23 -23 -23 -22 -22 -22 -21 -21 -22 -21 -21 -21 -20 -21
-18 -18 -18 -18 -20 -20 -20 -20 -20 -21 -21 -22 -21 -22 -22 -23 -23 -23 -23 -23 -23 -23 -23 -23 -23 -23 -23 -23 -23 -23 -23 -23 -23 -22 -22 -22 -22 -22 -21 -22 -21 -21 -21 -22
-19 -19 -19 -19 -20 -20 -20 -20 -20 -22 -23 -24 -22 -23 -22 -23 -23 -23 -23 -24 -24 -24 -24 -24 -24 -24 -24 -24 -24 -24 -24 -24 -24 -24 -24 -23 -23 -24 -24 -24 -24 -23 -23 -23
-20 -20 -21 -20 -21 -21 -21 -20 -21 -22 -22 -23 -23 -23 -24 -23 -24 -24 -24 -24 -24 -24 -24 -24 -24 -24 -24 -24 -25 -25 -26 -26 -26 -27 -27 -27 -27 -27 -27 -27 -26 -26 -26 -26
-21 -21 -22 -21 -22 -22 -22 -21 -23 -23 -23 -23 -23 -24 -24 -24 -24 -24 -25 -25 -25 -25 -25 -25 -26 -26 -27 -27 -27 -28 -28 -28 -28 -28 -28 -29 -29 -29 -29 -29 -28 -28 -27 -26
-22 -22 -23 -23 -23 -23 -22 -22 -23 -23 -23 -24 -24 -24 -24 -24 -24 -25 -25 -25 -26 -26 -27 -27 -28 -29 -29 -30 -30 -30 -30 -30 -30 -30 -30 -30 -30 -30 -30 -30 -30 -29 -29 -28
-23 -24 -24 -24 -24 -24 -23 -24 -24 -25 -25 -25 -26 -26 -26 -26 -26 -26 -26 -27 -27 -28 -29 -29 -30 -30 -30 -30 -31 -31 -31 -31 -31 -31 -31 -31 -31 -31 -30 -30 -30 -30 -30 -30
-24 -24 -25 -25 -25 -25 -25 -25 -25 -25 -25 -25 -25 -26 -26 -26 -26 -26 -28 -29 -30 -30 -31 -31 -31 -31 -31 -31 -31 -31 -31 -31 -31 -31 -31 -31 -31 -31 -30 -30 -30 -30 -29 -29
-24 -25 -25 -25 -26 -25 -25 -26 -26 -26 -26 -26 -26 -27 -27 -27 -28 -28 -29 -31 -31 -31 -31 -32 -32 -32 -32 -32 -31 -31 -31 -31 -32 -32 -31 -31 -31 -31 -30 -30 -30 -29 -29 -29
-25 -26 -25 -26 -26 -26 -26 -26 -27 -28 -27 -28 -28 -28 -29 -29 -30 -31 -31 -31 -31 -31 -32 -32 -32 -32 -32 -32 -32 -32 -32 -32 -32 -32 -32 -32 -31 -31 -31 -31 -30 -30 -30 -30
-26 -26 -26 -26 -27 -27 -27 -29 -29 -29 -29 -29 -30 -30 -31 -32 -32 -32 -32 -32 -32 -32 -32 -32 -33 -33 -33 -33 -33 -33 -32 -32 -33 -33 -34 -33 -32 -32 -32 -32 -32 -31 -31 -30
-27 -27 -27 -27 -26 -28 -30 -30 -31 -31 -31 -32 -32 -33 -32 -32 -32 -32 -32 -33 -33 -33 -33 -33 -33 -33 -33 -33 -33 -33 -33 -34 -35 -35 -34 -33 -34 -34 -34 -33 -32 -31 -31 -31
-27 -27 -27 -28 -28 -30 -29 -30 -31 -32 -33 -33 -33 -33 -33 -33 -33 -33 -33 -33 -34 -34 -34 -34 -34 -34 -34 -34 -34 -34 -36 -36 -35 -35 -35 -35 -35 -34 -34 -33 -31 -31 -30 -31
-28 -27 -28 -29 -29 -31 -31 -32 -32 -33 -33 -33 -33 -33 -33 -33 -33 -33 -33 -33 -34 -34 -34 -34 -34 -34 -34 -35 -36 -37 -37 -36 -36 -36 -35 -35 -35 -34 -34 -33 -31 -31 -30 -30

GFSCGP_500_temp_030.txt.gz
Temp
-10 -10 -11 -11 -10 -11 -11 -11 -11 -11 -11 -10 -11 -11 -11 -11 -11 -11 -11 -11 -11 -10 -10 -10 -11 -11 -11 -10 -11 -11 -11 -11 -12 -12 -12 -12 -12 -12 -12 -11 -12 -12 -12 -12
-10 -10 -11 -11 -11 -11 -11 -11 -11 -11 -11 -11 -11 -11 -12 -12 -12 -12 -12 -12 -12 -12 -12 -12 -11 -11 -11 -11 -11 -11 -11 -12 -12 -12 -12 -12 -12 -12 -12 -12 -12 -12 -12 -12
-11 -11 -11 -11 -11 -11 -12 -12 -12 -12 -12 -12 -11 -11 -12 -12 -12 -13 -13 -13 -13 -13 -13 -13 -13 -12 -12 -12 -12 -12 -11 -11 -11 -12 -12 -12 -12 -12 -13 -13 -13 -13 -13 -12
-11 -12 -12 -12 -12 -12 -12 -12 -12 -12 -12 -12 -12 -11 -11 -12 -12 -12 -13 -13 -13 -13 -13 -13 -13 -13 -13 -13 -12 -12 -13 -12 -12 -12 -12 -12 -13 -13 -13 -14 -14 -13 -13 -14
-12 -12 -12 -13 -12 -12 -13 -13 -13 -13 -13 -12 -12 -12 -12 -13 -13 -13 -13 -14 -14 -14 -14 -14 -14 -14 -15 -15 -15 -15 -14 -14 -14 -13 -13 -13 -14 -14 -14 -14 -14 -15 -15 -15
-12 -12 -13 -13 -13 -13 -13 -14 -14 -14 -14 -13 -13 -13 -12 -13 -13 -14 -14 -14 -15 -15 -15 -15 -15 -15 -15 -15 -15 -15 -15 -16 -16 -15 -15 -14 -14 -14 -15 -15 -15 -15 -16 -16
-13 -13 -13 -13 -14 -14 -14 -15 -15 -14 -14 -14 -14 -13 -13 -14 -14 -14 -15 -15 -15 -16 -15 -16 -16 -16 -16 -16 -16 -17 -17 -17 -17 -17 -16 -16 -16 -15 -15 -16 -16 -16 -16 -16
-14 -14 -14 -14 -15 -15 -15 -15 -16 -15 -15 -14 -14 -14 -14 -14 -15 -16 -16 -16 -16 -17 -17 -17 -17 -17 -17 -17 -17 -17 -17 -17 -17 -17 -17 -17 -17 -17 -17 -16 -16 -17 -17 -17
-15 -15 -15 -15 -16 -16 -15 -15 -16 -16 -15 -15 -14 -14 -14 -15 -15 -16 -17 -17 -17 -17 -17 -18 -18 -18 -18 -18 -18 -18 -18 -19 -18 -18 -18 -18 -19 -19 -18 -19 -18 -18 -18 -18
-16 -16 -16 -16 -16 -15 -16 -16 -16 -16 -16 -15 -15 -14 -15 -16 -16 -17 -18 -18 -18 -18 -19 -19 -19 -19 -19 -19 -20 -20 -20 -20 -20 -20 -20 -20 -21 -20 -20 -20 -20 -20 -19 -20
-16 -16 -16 -16 -16 -16 -16 -16 -16 -17 -17 -17 -16 -15 -16 -17 -18 -18 -19 -19 -19 -20 -20 -20 -20 -20 -20 -21 -21 -21 -21 -22 -22 -22 -22 -21 -21 -21 -21 -21 -21 -21 -21 -21
-16 -16 -16 -16 -16 -17 -17 -17 -17 -18 -17 -18 -19 -16 -17 -18 -19 -19 -20 -20 -20 -20 -20 -20 -21 -21 -21 -21 -21 -22 -22 -22 -22 -22 -22 -22 -22 -22 -21 -22 -22 -21 -21 -21
-17 -17 -17 -17 -18 -18 -18 -18 -18 -18 -19 -19 -20 -18 -18 -19 -20 -21 -21 -21 -21 -21 -21 -22 -22 -22 -22 -22 -22 -22 -23 -23 -22 -22 -22 -22 -22 -22 -22 -23 -23 -22 -22 -22
-18 -18 -18 -18 -19 -18 -18 -18 -18 -19 -19 -19 -19 -20 -20 -21 -21 -21 -21 -22 -22 -23 -23 -23 -23 -23 -23 -23 -23 -23 -23 -23 -23 -23 -23 -23 -23 -23 -23 -23 -23 -23 -23 -23
-18 -18 -18 -19 -19 -19 -19 -18 -19 -20 -20 -21 -20 -21 -21 -22 -23 -22 -23 -24 -24 -24 -24 -24 -24 -24 -24 -24 -24 -24 -24 -24 -24 -24 -24 -24 -24 -24 -25 -25 -25 -25 -24 -24
-19 -20 -19 -19 -20 -20 -19 -19 -20 -20 -21 -22 -23 -23 -23 -23 -23 -23 -23 -24 -23 -24 -24 -24 -24 -24 -24 -25 -25 -25 -25 -25 -26 -26 -27 -27 -27 -28 -28 -28 -28 -28 -28 -27
-20 -20 -20 -20 -21 -21 -21 -20 -21 -21 -22 -23 -23 -23 -24 -24 -24 -24 -24 -24 -24 -24 -24 -24 -24 -25 -25 -25 -26 -26 -27 -27 -28 -29 -29 -29 -30 -30 -30 -30 -30 -30 -30 -30
-21 -21 -21 -21 -22 -22 -21 -21 -22 -22 -23 -23 -24 -24 -24 -24 -24 -24 -24 -24 -25 -25 -25 -26 -26 -26 -26 -27 -28 -29 -29 -30 -30 -30 -30 -30 -31 -31 -31 -31 -31 -30 -30 -30
-22 -22 -22 -23 -23 -23 -22 -22 -23 -23 -23 -24 -24 -25 -24 -25 -25 -25 -25 -25 -26 -26 -26 -26 -27 -28 -29 -29 -30 -31 -31 -31 -31 -31 -31 -31 -31 -31 -31 -31 -31 -31 -31 -30
-23 -23 -24 -24 -24 -24 -23 -24 -24 -25 -25 -24 -25 -25 -26 -26 -25 -25 -26 -26 -26 -27 -27 -28 -29 -30 -31 -31 -31 -31 -32 -32 -32 -32 -32 -32 -32 -32 -31 -31 -31 -31 -31 -30
-23 -24 -25 -25 -26 -25 -25 -25 -26 -26 -25 -26 -26 -26 -26 -26 -26 -26 -27 -27 -28 -29 -30 -30 -31 -31 -32 -32 -32 -32 -32 -32 -32 -32 -32 -32 -32 -32 -32 -32 -31 -31 -31 -31
-24 -25 -25 -25 -26 -26 -26 -26 -26 -27 -27 -27 -27 -26 -26 -26 -27 -27 -28 -28 -29 -30 -31 -32 -32 -32 -32 -32 -32 -32 -32 -32 -32 -33 -33 -33 -33 -33 -33 -32 -32 -32 -32 -32
-26 -26 -26 -26 -26 -26 -27 -27 -27 -27 -28 -28 -28 -27 -27 -28 -28 -28 -29 -30 -31 -32 -32 -32 -32 -32 -32 -33 -33 -33 -33 -33 -33 -33 -33 -33 -33 -34 -34 -33 -33 -34 -34 -33
-26 -26 -27 -27 -26 -27 -28 -29 -29 -29 -29 -29 -30 -29 -29 -30 -30 -30 -31 -32 -32 -32 -33 -33 -33 -33 -33 -33 -33 -33 -33 -33 -33 -34 -34 -34 -34 -35 -34 -34 -35 -34 -34 -33
-26 -26 -26 -27 -28 -29 -29 -29 -29 -30 -30 -31 -31 -31 -31 -32 -32 -32 -33 -33 -33 -33 -33 -33 -33 -34 -34 -34 -34 -34 -34 -34 -34 -34 -35 -35 -35 -36 -35 -35 -35 -35 -34 -33
-27 -26 -28 -29 -29 -30 -29 -29 -30 -30 -31 -31 -32 -32 -33 -33 -33 -33 -33 -33 -33 -33 -33 -34 -34 -34 -34 -34 -34 -35 -35 -35 -35 -36 -36 -36 -36 -36 -35 -35 -35 -35 -34 -34

GFSCGP_500_temp_033.txt.gz
Temp
-11 -10 -11 -11 -10 -10 -10 -10 -10 -11 -11 -11 -11 -11 -11 -11 -11 -12 -11 -11 -11 -11 -11 -11 -11 -11 -11 -11 -11 -11 -11 -11 -11 -11 -12 -12 -12 -12 -12 -12 -12 -12 -12 -13
-11 -10 -11 -11 -10 -10 -10 -11 -11 -11 -11 -10 -11 -11 -11 -12 -12 -12 -12 -12 -12 -12 -12 -12 -11 -11 -11 -11 -11 -12 -12 -12 -12 -12 -12 -12 -12 -12 -12 -12 -12 -12 -12 -12
-11 -11 -11 -11 -11 -11 -11 -11 -11 -11 -11 -11 -11 -11 -12 -12 -12 -12 -12 -13 -13 -13 -13 -13 -12 -12 -12 -12 -12 -12 -12 -12 -12 -12 -13 -13 -13 -13 -13 -13 -13 -13 -13 -13
-10 -11 -11 -11 -11 -11 -11 -12 -12 -12 -12 -12 -11 -11 -12 -12 -13 -13 -13 -13 -13 -13 -13 -13 -13 -13 -13 -13 -13 -13 -13 -13 -13 -13 -13 -13 -13 -13 -13 -13 -13 -13 -13 -13
-11 -11 -12 -12 -12 -12 -12 -12 -12 -12 -12 -11 -12 -12 -11 -12 -13 -13 -13 -13 -13 -13 -13 -13 -14 -14 -14 -14 -14 -15 -15 -15 -14 -14 -14 -14 -13 -13 -13 -13 -14 -14 -14 -14
-12 -12 -13 -13 -13 -13 -13 -13 -13 -12 -12 -11 -12 -13 -11 -12 -13 -13 -14 -14 -14 -14 -14 -14 -14 -14 -14 -15 -15 -15 -15 -15 -15 -15 -15 -15 -15 -14 -14 -14 -14 -14 -15 -15
-13 -13 -13 -13 -13 -13 -13 -14 -14 -13 -13 -13 -13 -13 -12 -13 -13 -14 -14 -14 -14 -14 -15 -15 -15 -15 -16 -16 -16 -16 -16 -16 -16 -17 -17 -16 -16 -16 -16 -16 -16 -15 -15 -15
-13 -13 -14 -14 -14 -14 -13 -14 -15 -14 -14 -14 -13 -12 -12 -14 -14 -14 -14 -14 -14 -15 -15 -16 -16 -16 -16 -17 -17 -17 -17 -17 -18 -17 -18 -17 -17 -17 -18 -18 -18 -17 -17 -17
-14 -14 -14 -14 -14 -15 -14 -14 -15 -15 -15 -15 -14 -13 -14 -14 -15 -15 -15 -15 -15 -15 -15 -16 -16 -16 -17 -17 -17 -18 -18 -19 -19 -19 -19 -19 -19 -19 -18 -19 -19 -19 -19 -19
-14 -14 -14 -15 -15 -16 -16 -16 -16 -16 -16 -16 -14 -14 -15 -15 -15 -15 -16 -17 -16 -16 -16 -17 -18 -18 -18 -19 -19 -19 -19 -20 -20 -20 -20 -20 -21 -20 -20 -20 -20 -20 -20 -21
-14 -15 -15 -15 -16 -17 -17 -16 -16 -17 -16 -16 -15 -14 -15 -15 -16 -16 -16 -17 -18 -18 -18 -18 -18 -19 -19 -20 -20 -20 -20 -20 -21 -21 -22 -22 -22 -22 -22 -22 -22 -22 -22 -22
-16 -15 -15 -15 -16 -17 -17 -16 -17 -17 -16 -17 -17 -15 -16 -16 -17 -17 -17 -18 -19 -19 -19 -19 -19 -20 -20 -20 -21 -21 -21 -21 -21 -22 -22 -22 -22 -22 -22 -22 -22 -22 -23 -22
-17 -16 -16 -16 -16 -17 -17 -17 -17 -17 -18 -17 -18 -16 -17 -18 -18 -19 -19 -19 -20 -20 -20 -20 -20 -21 -21 -21 -22 -22 -22 -22 -22 -23 -23 -23 -23 -23 -23 -23 -23 -23 -23 -23
-17 -17 -17 -16 -17 -17 -17 -17 -18 -18 -18 -18 -18 -18 -18 -19 -19 -20 -20 -21 -21 -21 -21 -21 -22 -22 -22 -23 -23 -23 -23 -23 -23 -23 -23 -23 -23 -24 -24 -24 -24 -24 -24 -24
-17 -17 -17 -17 -18 -18 -18 -18 -18 -18 -19 -19 -18 -19 -19 -21 -21 -21 -21 -21 -21 -22 -22 -23 -23 -24 -24 -24 -24 -24 -24 -24 -24 -24 -24 -24 -24 -24 -25 -25 -25 -26 -26 -26
-18 -18 -18 -18 -19 -19 -19 -18 -18 -19 -19 -20 -20 -20 -21 -21 -22 -22 -23 -23 -23 -24 -24 -24 -24 -24 -25 -25 -24 -24 -24 -24 -25 -25 -25 -25 -26 -27 -27 -28 -28 -29 -29 -30
-19 -19 -19 -19 -19 -19 -19 -18 -19 -20 -20 -21 -21 -21 -22 -23 -23 -23 -23 -24 -24 -24 -25 -25 -25 -24 -24 -25 -25 -25 -25 -25 -25 -26 -27 -28 -29 -30 -30 -30 -31 -31 -31 -31
-19 -19 -19 -19 -19 -20 -19 -19 -20 -21 -21 -22 -23 -23 -23 -23 -24 -24 -24 -25 -25 -25 -25 -24 -25 -25 -25 -25 -25 -26 -26 -27 -28 -29 -30 -31 -31 -31 -31 -31 -31 -31 -31 -31
-20 -20 -20 -21 -21 -21 -20 -20 -21 -22 -22 -23 -23 -24 -24 -24 -24 -24 -25 -25 -25 -25 -25 -25 -25 -25 -26 -26 -26 -27 -28 -29 -30 -31 -32 -32 -32 -32 -32 -32 -32 -32 -32 -32
-20 -21 -21 -21 -22 -22 -21 -21 -23 -23 -23 -23 -24 -24 -25 -25 -25 -25 -25 -25 -25 -26 -26 -26 -26 -26 -27 -27 -28 -29 -31 -32 -32 -32 -32 -32 -32 -32 -32 -32 -32 -32 -32 -32
-21 -22 -22 -23 -24 -23 -22 -24 -24 -25 -24 -24 -25 -25 -25 -25 -26 -25 -25 -26 -26 -26 -26 -27 -27 -28 -29 -30 -31 -32 -32 -32 -32 -32 -32 -33 -33 -33 -33 -33 -33 -32 -33 -32
-23 -24 -23 -24 -24 -23 -24 -25 -25 -26 -26 -26 -26 -26 -26 -26 -26 -26 -26 -27 -27 -27 -28 -28 -29 -30 -31 -32 -32 -32 -32 -32 -33 -33 -33 -33 -33 -33 -33 -33 -33 -33 -33 -32
-24 -24 -25 -24 -24 -25 -26 -26 -26 -27 -27 -27 -27 -27 -27 -27 -27 -27 -27 -28 -28 -29 -30 -31 -31 -32 -33 -33 -33 -33 -33 -33 -33 -33 -33 -33 -33 -33 -34 -34 -34 -34 -34 -33
-25 -25 -25 -25 -25 -26 -27 -28 -28 -28 -27 -27 -27 -28 -28 -28 -28 -28 -29 -29 -30 -31 -32 -32 -33 -33 -33 -33 -33 -33 -33 -33 -33 -34 -34 -34 -34 -34 -34 -34 -35 -35 -35 -34
-25 -25 -24 -25 -26 -28 -29 -29 -29 -29 -29 -29 -29 -29 -29 -29 -29 -30 -30 -31 -32 -33 -33 -33 -33 -33 -33 -33 -34 -34 -34 -34 -34 -34 -34 -34 -35 -35 -35 -35 -36 -36 -35 -35
-25 -25 -26 -27 -28 -29 -29 -29 -29 -29 -29 -30 -31 -31 -30 -31 -31 -31 -32 -32 -33 -33 -34 -34 -34 -34 -34 -34 -34 -34 -34 -35 -35 -35 -35 -35 -36 -36 -36 -36 -36 -37 -36 -36

GFSCGP_500_temp_036.txt.gz
Temp
-11 -10 -11 -11 -11 -10 -10 -10 -10 -11 -11 -10 -10 -10 -11 -11 -11 -11 -11 -11 -11 -11 -11 -11 -11 -11 -11 -11 -11 -11 -11 -11 -11 -11 -11 -12 -12 -12 -12 -13 -13 -13 -12 -12
-11 -11 -11 -11 -11 -10 -10 -10 -11 -11 -11 -10 -10 -11 -11 -11 -11 -11 -12 -12 -12 -12 -12 -12 -12 -12 -11 -11 -11 -11 -11 -12 -12 -12 -12 -12 -12 -12 -12 -13 -13 -13 -13 -13
-11 -11 -11 -11 -11 -11 -11 -11 -11 -11 -11 -11 -11 -11 -11 -11 -11 -12 -12 -12 -12 -12 -13 -13 -13 -12 -12 -12 -12 -12 -12 -12 -12 -12 -13 -13 -13 -13 -13 -13 -13 -13 -13 -13
-11 -11 -11 -11 -11 -11 -11 -11 -11 -11 -11 -11 -11 -10 -11 -12 -12 -12 -12 -13 -13 -13 -13 -13 -13 -13 -13 -13 -13 -13 -12 -12 -13 -12 -12 -12 -12 -12 -12 -12 -13 -13 -13 -13
-10 -11 -11 -11 -11 -11 -11 -12 -12 -12 -12 -11 -11 -11 -10 -11 -12 -13 -13 -13 -13 -13 -13 -13 -13 -13 -13 -13 -13 -13 -14 -13 -13 -13 -13 -13 -13 -14 -14 -14 -14 -14 -14 -14
-11 -11 -11 -11 -11 -12 -12 -12 -12 -12 -12 -11 -12 -12 -10 -11 -12 -13 -13 -14 -14 -13 -13 -14 -14 -14 -14 -14 -14 -14 -14 -14 -15 -15 -15 -15 -16 -16 -16 -16 -16 -16 -16 -15
-12 -12 -12 -12 -12 -12 -12 -13 -13 -13 -13 -12 -12 -11 -11 -12 -13 -14 -14 -14 -15 -14 -14 -14 -14 -14 -14 -14 -14 -15 -15 -16 -16 -16 -16 -16 -16 -17 -17 -17 -17 -17 -17 -17
-12 -12 -13 -13 -13 -13 -13 -13 -13 -13 -13 -12 -12 -11 -12 -13 -13 -14 -15 -15 -15 -15 -15 -15 -14 -15 -15 -15 -15 -15 -15 -16 -16 -16 -16 -17 -17 -18 -18 -18 -18 -19 -18 -18
-13 -13 -13 -14 -14 -14 -13 -13 -14 -13 -13 -13 -12 -12 -13 -14 -14 -15 -15 -15 -15 -15 -15 -15 -15 -15 -16 -16 -16 -16 -16 -17 -17 -18 -18 -19 -19 -19 -19 -20 -20 -20 -20 -20
-14 -14 -14 -14 -14 -14 -14 -14 -14 -14 -14 -13 -13 -13 -13 -14 -15 -16 -16 -15 -16 -16 -16 -16 -17 -17 -17 -17 -17 -17 -18 -18 -19 -19 -19 -19 -20 -20 -21 -21 -21 -21 -22 -22
-15 -15 -14 -14 -14 -15 -15 -15 -15 -16 -15 -15 -14 -13 -14 -15 -16 -16 -17 -17 -16 -17 -17 -17 -17 -17 -17 -18 -18 -19 -19 -19 -20 -20 -20 -21 -21 -22 -22 -22 -22 -22 -22 -22
-15 -15 -14 -14 -14 -15 -15 -15 -16 -16 -16 -17 -17 -13 -15 -16 -16 -17 -17 -17 -17 -17 -18 -18 -18 -18 -19 -19 -19 -20 -20 -20 -21 -21 -21 -21 -22 -22 -22 -22 -22 -22 -23 -23
-15 -15 -15 -15 -14 -14 -15 -16 -17 -17 -17 -16 -18 -15 -16 -17 -17 -18 -18 -18 -18 -19 -19 -19 -19 -20 -20 -20 -21 -21 -21 -22 -22 -22 -22 -23 -23 -23 -23 -23 -23 -23 -23 -23
-15 -15 -15 -15 -15 -15 -16 -16 -17 -17 -17 -17 -17 -17 -17 -18 -18 -19 -19 -19 -19 -20 -20 -20 -20 -21 -21 -22 -22 -22 -23 -23 -23 -23 -24 -23 -24 -24 -24 -24 -24 -24 -24 -24
-16 -16 -16 -16 -16 -16 -16 -17 -17 -17 -17 -18 -17 -17 -18 -19 -20 -20 -20 -20 -20 -20 -20 -21 -21 -22 -23 -23 -23 -24 -24 -24 -24 -24 -24 -24 -24 -24 -24 -24 -25 -25 -25 -25
-16 -17 -17 -17 -17 -17 -17 -17 -17 -17 -17 -18 -19 -18 -19 -20 -20 -20 -20 -20 -21 -21 -21 -22 -23 -23 -24 -24 -24 -25 -25 -25 -25 -25 -25 -25 -25 -25 -25 -25 -26 -27 -28 -29
-17 -17 -17 -17 -18 -18 -18 -16 -18 -18 -18 -19 -19 -19 -20 -20 -20 -20 -21 -22 -22 -23 -23 -23 -24 -24 -25 -25 -25 -25 -25 -26 -26 -26 -26 -26 -26 -26 -26 -28 -29 -30 -30 -31
-18 -18 -18 -18 -19 -19 -17 -17 -17 -18 -18 -19 -20 -20 -21 -21 -21 -21 -22 -22 -23 -23 -24 -24 -25 -25 -25 -25 -26 -26 -26 -26 -26 -26 -26 -27 -27 -28 -29 -31 -31 -32 -32 -32
-18 -18 -18 -19 -19 -19 -18 -18 -18 -19 -19 -20 -20 -21 -21 -22 -22 -22 -23 -23 -23 -24 -25 -25 -25 -26 -26 -26 -26 -26 -27 -27 -27 -27 -28 -29 -30 -31 -32 -32 -32 -32 -32 -32
-18 -18 -18 -19 -19 -20 -20 -20 -21 -21 -20 -21 -23 -22 -22 -22 -22 -23 -24 -24 -25 -25 -25 -26 -26 -26 -26 -27 -27 -27 -27 -27 -28 -29 -30 -32 -32 -32 -33 -33 -33 -33 -33 -33
-19 -19 -19 -20 -21 -21 -21 -21 -21 -22 -22 -22 -22 -22 -23 -23 -24 -24 -24 -25 -25 -25 -26 -26 -27 -27 -27 -28 -28 -28 -28 -29 -30 -32 -32 -33 -33 -33 -33 -33 -33 -33 -33 -33
-19 -20 -20 -21 -21 -21 -22 -22 -22 -23 -23 -24 -23 -24 -24 -24 -24 -25 -25 -25 -26 -26 -26 -27 -28 -28 -28 -28 -29 -30 -31 -32 -32 -33 -33 -33 -33 -33 -33 -33 -34 -34 -34 -34
-20 -21 -21 -21 -21 -22 -23 -24 -25 -25 -25 -25 -25 -25 -25 -25 -25 -25 -26 -26 -27 -27 -27 -28 -28 -28 -29 -30 -31 -32 -32 -33 -33 -33 -34 -34 -34 -34 -34 -34 -34 -34 -35 -35
-21 -21 -22 -22 -22 -24 -25 -26 -26 -27 -26 -26 -26 -26 -26 -26 -26 -26 -27 -27 -28 -28 -29 -29 -30 -30 -31 -32 -32 -33 -33 -34 -34 -34 -34 -34 -35 -35 -35 -35 -35 -35 -35 -35
-22 -22 -22 -24 -24 -26 -27 -27 -27 -27 -27 -27 -27 -27 -27 -27 -27 -28 -28 -28 -29 -29 -30 -31 -31 -32 -33 -33 -33 -34 -34 -34 -34 -35 -35 -35 -35 -35 -35 -36 -36 -36 -36 -36
-22 -23 -23 -25 -26 -27 -27 -28 -28 -28 -28 -28 -28 -28 -28 -28 -28 -29 -29 -30 -30 -30 -31 -32 -32 -33 -34 -34 -34 -34 -34 -35 -35 -35 -36 -36 -36 -36 -36 -36 -37 -37 -37 -37

GFSCGP_500_temp_039.txt.gz
Temp
-11 -10 -11 -11 -11 -10 -10 -10 -11 -11 -11 -10 -10 -10 -11 -11 -10 -10 -11 -11 -11 -11 -11 -11 -11 -11 -11 -11 -11 -11 -11 -11 -11 -11 -11 -11 -11 -11 -12 -12 -12 -12 -12 -12
-11 -11 -12 -11 -11 -11 -11 -11 -11 -11 -11 -10 -10 -10 -10 -11 -11 -11 -11 -11 -11 -11 -11 -11 -11 -12 -12 -12 -12 -12 -12 -12 -12 -12 -12 -12 -12 -12 -12 -12 -12 -12 -12 -12
-11 -11 -11 -11 -11 -11 -11 -11 -11 -11 -10 -10 -10 -10 -11 -11 -11 -11 -11 -11 -12 -12 -12 -12 -12 -12 -12 -12 -12 -12 -12 -12 -12 -12 -12 -12 -12 -13 -13 -13 -13 -13 -14 -14
-11 -11 -12 -12 -11 -12 -11 -11 -11 -11 -10 -10 -11 -10 -11 -11 -11 -12 -12 -12 -12 -12 -12 -13 -13 -13 -13 -13 -13 -13 -13 -13 -13 -13 -13 -13 -13 -13 -13 -13 -13 -14 -14 -15
-11 -11 -12 -11 -12 -12 -11 -11 -11 -11 -11 -10 -10 -11 -10 -12 -12 -13 -13 -13 -13 -13 -13 -13 -13 -13 -13 -13 -13 -14 -14 -14 -14 -14 -14 -14 -14 -14 -14 -14 -14 -14 -14 -14
-12 -12 -12 -11 -12 -12 -11 -12 -11 -11 -11 -10 -11 -11 -10 -11 -12 -13 -13 -13 -13 -13 -13 -13 -14 -14 -14 -14 -14 -14 -14 -14 -14 -14 -14 -15 -15 -15 -15 -15 -15 -15 -16 -16
-13 -12 -12 -12 -12 -12 -12 -12 -12 -12 -12 -11 -11 -11 -11 -11 -12 -13 -13 -13 -13 -13 -13 -14 -14 -14 -14 -14 -15 -15 -15 -15 -15 -15 -15 -16 -16 -16 -17 -17 -17 -17 -17 -18
-13 -13 -13 -13 -12 -13 -13 -12 -12 -12 -12 -12 -12 -11 -11 -12 -12 -13 -13 -13 -13 -14 -14 -15 -15 -15 -15 -15 -15 -16 -16 -15 -16 -16 -16 -17 -17 -17 -17 -18 -18 -19 -19 -19
-14 -13 -13 -13 -14 -13 -13 -12 -14 -13 -12 -12 -12 -12 -12 -12 -12 -13 -14 -14 -14 -15 -15 -15 -15 -16 -16 -16 -15 -16 -16 -16 -17 -17 -17 -17 -17 -18 -18 -18 -19 -20 -20 -20
-13 -14 -14 -13 -14 -13 -13 -13 -13 -13 -13 -13 -12 -12 -12 -13 -14 -15 -15 -15 -15 -16 -16 -16 -16 -16 -16 -16 -16 -17 -17 -17 -17 -17 -17 -18 -19 -19 -20 -20 -21 -21 -21 -22
-14 -14 -13 -14 -13 -14 -14 -13 -14 -15 -14 -13 -13 -12 -12 -13 -14 -14 -15 -16 -16 -16 -16 -16 -16 -16 -17 -17 -17 -17 -18 -18 -18 -19 -19 -19 -20 -20 -21 -21 -22 -22 -22 -22
-14 -14 -14 -14 -14 -14 -14 -14 -14 -14 -14 -14 -14 -12 -13 -14 -14 -16 -16 -16 -16 -16 -17 -17 -17 -17 -18 -18 -18 -18 -19 -19 -19 -20 -20 -20 -21 -21 -22 -22 -22 -23 -23 -23
-14 -14 -14 -14 -14 -14 -14 -14 -14 -15 -15 -15 -15 -13 -14 -15 -16 -16 -16 -17 -17 -17 -17 -18 -18 -18 -18 -19 -19 -19 -20 -20 -21 -21 -21 -22 -22 -22 -23 -23 -23 -23 -23 -24
-15 -15 -14 -14 -14 -15 -15 -15 -16 -16 -16 -16 -15 -16 -16 -17 -17 -17 -17 -18 -18 -18 -18 -18 -18 -19 -19 -19 -19 -20 -20 -21 -21 -22 -23 -23 -23 -23 -24 -24 -24 -24 -25 -25
-15 -15 -15 -15 -15 -15 -15 -15 -16 -16 -16 -17 -16 -17 -17 -18 -18 -18 -18 -19 -18 -19 -19 -19 -19 -19 -20 -20 -21 -21 -21 -22 -22 -23 -24 -24 -24 -25 -25 -25 -25 -25 -26 -26
-15 -15 -15 -15 -15 -15 -15 -16 -16 -16 -17 -17 -18 -17 -18 -19 -19 -19 -19 -19 -19 -19 -19 -20 -20 -20 -20 -21 -21 -22 -23 -24 -24 -25 -25 -25 -26 -26 -26 -26 -26 -26 -26 -26
-15 -15 -15 -15 -16 -16 -16 -15 -16 -17 -17 -18 -18 -18 -19 -19 -19 -19 -19 -19 -19 -20 -20 -20 -21 -21 -22 -23 -23 -24 -25 -25 -25 -26 -26 -26 -27 -27 -27 -27 -27 -27 -28 -28
-16 -16 -16 -16 -16 -16 -16 -16 -17 -17 -18 -18 -19 -19 -19 -19 -19 -19 -19 -20 -20 -21 -21 -22 -22 -23 -24 -24 -25 -25 -25 -25 -26 -27 -27 -27 -27 -27 -27 -28 -28 -29 -30 -31
-17 -17 -17 -17 -17 -17 -17 -16 -17 -18 -18 -18 -19 -19 -19 -19 -20 -20 -20 -20 -20 -21 -22 -23 -24 -24 -25 -25 -25 -26 -26 -27 -27 -27 -27 -27 -28 -28 -29 -30 -31 -32 -32 -33
-17 -17 -17 -17 -18 -18 -18 -18 -18 -18 -18 -19 -19 -20 -20 -20 -20 -21 -21 -21 -22 -22 -23 -24 -24 -25 -25 -26 -26 -26 -27 -27 -27 -28 -28 -29 -30 -31 -31 -32 -33 -33 -33 -33
-17 -18 -18 -18 -18 -18 -18 -19 -19 -19 -19 -19 -19 -20 -21 -21 -21 -21 -22 -22 -22 -23 -24 -25 -25 -25 -26 -26 -27 -27 -27 -28 -28 -29 -30 -31 -32 -32 -33 -33 -33 -34 -34 -34
-18 -18 -18 -19 -19 -19 -19 -19 -20 -20 -20 -20 -21 -21 -21 -21 -21 -22 -23 -23 -24 -24 -25 -25 -26 -26 -26 -27 -28 -28 -29 -29 -30 -31 -31 -32 -33 -33 -33 -34 -34 -34 -34 -34
-20 -20 -19 -20 -20 -20 -20 -21 -21 -21 -21 -22 -21 -22 -22 -22 -23 -23 -24 -24 -25 -25 -26 -26 -26 -26 -27 -28 -29 -29 -30 -30 -31 -32 -33 -33 -34 -34 -34 -34 -35 -35 -35 -35
-20 -20 -20 -21 -21 -21 -22 -22 -22 -23 -22 -22 -22 -23 -23 -24 -24 -24 -25 -25 -26 -26 -26 -27 -27 -28 -28 -29 -29 -30 -31 -31 -32 -32 -33 -33 -34 -34 -34 -35 -35 -35 -35 -36
-21 -21 -22 -22 -23 -23 -23 -23 -24 -24 -23 -24 -25 -25 -25 -25 -26 -26 -25 -26 -27 -27 -27 -28 -28 -29 -29 -30 -30 -31 -32 -32 -32 -33 -33 -34 -34 -35 -35 -35 -36 -36 -36 -36
-22 -22 -22 -23 -23 -24 -24 -26 -26 -26 -27 -27 -26 -26 -26 -26 -26 -26 -26 -27 -28 -28 -28 -28 -29 -30 -30 -31 -31 -32 -33 -33 -33 -34 -34 -34 -35 -35 -36 -36 -36 -36 -36 -37

GFSCGP_500_temp_042.txt.gz
Temp
-11 -11 -11 -12 -11 -11 -11 -11 -11 -11 -11 -11 -11 -11 -10 -10 -10 -10 -10 -10 -10 -10 -10 -11 -11 -10 -10 -11 -11 -11 -11 -11 -11 -11 -11 -11 -11 -11 -11 -11 -11 -11 -11 -11
-11 -11 -12 -11 -11 -11 -11 -11 -11 -11 -11 -10 -10 -10 -11 -11 -11 -10 -10 -10 -10 -11 -11 -11 -11 -11 -10 -11 -11 -11 -11 -11 -12 -12 -12 -12 -12 -12 -12 -12 -12 -12 -12 -12
-11 -11 -12 -12 -12 -11 -11 -11 -11 -11 -11 -11 -10 -10 -10 -10 -10 -11 -11 -11 -11 -11 -11 -11 -11 -11 -11 -11 -12 -12 -12 -12 -12 -12 -13 -13 -13 -13 -13 -13 -13 -13 -13 -13
-12 -12 -12 -12 -12 -12 -12 -12 -12 -11 -11 -11 -10 -9 -9 -10 -10 -11 -11 -11 -11 -12 -12 -12 -12 -12 -12 -11 -11 -12 -12 -13 -13 -13 -13 -13 -13 -14 -14 -13 -13 -13 -13 -13
-12 -12 -12 -12 -12 -12 -12 -12 -12 -12 -11 -11 -10 -10 -9 -11 -11 -11 -11 -12 -12 -12 -12 -12 -12 -12 -12 -12 -12 -12 -13 -13 -13 -13 -13 -14 -14 -14 -14 -14 -14 -14 -14 -14
-12 -13 -13 -12 -13 -13 -12 -12 -12 -12 -11 -10 -10 -11 -9 -11 -12 -12 -12 -12 -12 -12 -12 -12 -12 -12 -12 -12 -12 -13 -13 -14 -14 -14 -14 -14 -14 -15 -15 -15 -15 -15 -16 -16
-13 -13 -13 -13 -13 -13 -13 -13 -12 -12 -11 -10 -11 -11 -10 -11 -12 -12 -12 -13 -13 -13 -13 -13 -13 -13 -13 -13 -13 -13 -14 -14 -14 -15 -15 -15 -15 -16 -16 -16 -16 -16 -17 -17
-13 -13 -13 -13 -14 -13 -13 -13 -13 -12 -12 -11 -11 -11 -11 -11 -12 -12 -13 -13 -13 -13 -13 -13 -13 -13 -13 -14 -14 -15 -15 -15 -15 -15 -15 -16 -16 -17 -17 -17 -17 -17 -17 -18
-14 -13 -13 -13 -13 -14 -13 -12 -13 -13 -13 -12 -11 -11 -11 -11 -12 -12 -13 -13 -13 -13 -13 -13 -13 -14 -14 -15 -15 -15 -15 -16 -16 -16 -16 -16 -16 -17 -17 -17 -17 -17 -18 -18
-14 -13 -13 -13 -13 -13 -13 -14 -14 -13 -13 -12 -11 -11 -11 -12 -12 -13 -13 -14 -14 -14 -14 -14 -14 -15 -15 -15 -16 -16 -16 -16 -16 -17 -17 -17 -17 -18 -18 -18 -18 -18 -19 -19
-15 -14 -13 -13 -13 -13 -13 -13 -14 -14 -13 -13 -12 -11 -12 -12 -13 -13 -14 -14 -14 -14 -15 -15 -15 -15 -16 -16 -16 -17 -17 -17 -17 -18 -18 -18 -18 -18 -18 -19 -19 -19 -20 -21
-15 -15 -14 -14 -13 -13 -14 -13 -14 -13 -13 -13 -13 -12 -13 -13 -13 -13 -14 -15 -15 -16 -16 -16 -16 -16 -17 -17 -17 -18 -18 -18 -18 -18 -18 -18 -19 -19 -19 -20 -20 -21 -22 -22
-15 -14 -15 -14 -13 -13 -12 -13 -13 -14 -14 -13 -14 -12 -13 -13 -14 -14 -15 -16 -16 -16 -16 -16 -16 -17 -17 -17 -18 -18 -18 -18 -19 -19 -19 -19 -19 -19 -20 -21 -22 -23 -23 -23
-15 -15 -14 -13 -14 -14 -14 -14 -14 -15 -14 -13 -12 -13 -14 -14 -15 -16 -16 -16 -16 -17 -17 -17 -17 -17 -18 -18 -18 -18 -19 -19 -19 -19 -19 -20 -20 -21 -21 -22 -23 -24 -24 -24
-15 -14 -15 -14 -14 -14 -14 -14 -15 -15 -14 -15 -13 -14 -15 -16 -16 -16 -16 -17 -17 -17 -17 -17 -18 -18 -18 -18 -19 -19 -19 -19 -19 -20 -20 -21 -21 -22 -23 -24 -24 -25 -25 -26
-15 -14 -15 -14 -14 -15 -15 -14 -14 -14 -14 -15 -15 -14 -15 -16 -16 -17 -17 -17 -17 -17 -18 -18 -18 -18 -19 -19 -19 -19 -20 -20 -20 -21 -22 -23 -23 -24 -25 -25 -26 -26 -26 -26
-15 -15 -15 -14 -15 -15 -15 -12 -15 -14 -15 -15 -16 -15 -16 -16 -17 -17 -17 -17 -18 -18 -18 -19 -19 -19 -19 -20 -20 -20 -21 -21 -22 -22 -23 -24 -25 -25 -26 -26 -26 -27 -27 -28
-15 -15 -16 -15 -15 -16 -13 -14 -14 -15 -15 -16 -16 -16 -17 -17 -17 -18 -18 -18 -19 -19 -19 -20 -20 -20 -20 -20 -21 -21 -22 -23 -24 -24 -25 -25 -26 -26 -26 -27 -27 -28 -29 -29
-16 -16 -17 -16 -16 -16 -15 -14 -14 -15 -16 -17 -17 -17 -17 -18 -18 -18 -18 -19 -19 -19 -20 -20 -21 -21 -21 -21 -22 -23 -24 -24 -25 -25 -26 -26 -26 -26 -27 -27 -28 -29 -30 -31
-17 -17 -17 -17 -17 -16 -15 -16 -16 -16 -17 -17 -18 -18 -18 -18 -18 -19 -19 -19 -19 -19 -20 -21 -21 -21 -22 -23 -24 -24 -25 -25 -26 -26 -26 -26 -26 -27 -28 -29 -30 -31 -32 -32
-18 -17 -17 -17 -17 -17 -17 -17 -17 -17 -17 -18 -18 -18 -18 -19 -19 -19 -19 -20 -20 -20 -21 -21 -22 -22 -23 -24 -24 -25 -25 -26 -26 -26 -27 -27 -28 -28 -29 -30 -31 -32 -33 -33
-18 -18 -18 -18 -18 -18 -18 -18 -18 -18 -19 -19 -19 -19 -19 -19 -20 -20 -20 -20 -21 -21 -22 -22 -22 -23 -24 -25 -25 -25 -26 -26 -27 -27 -28 -28 -29 -29 -30 -31 -32 -33 -33 -34
-19 -19 -19 -19 -19 -19 -19 -19 -20 -20 -20 -20 -20 -20 -20 -20 -20 -21 -21 -21 -21 -22 -22 -23 -24 -25 -25 -25 -26 -26 -27 -27 -27 -28 -29 -29 -30 -31 -32 -32 -33 -34 -34 -34
-19 -20 -20 -20 -20 -20 -20 -20 -21 -21 -20 -20 -20 -21 -21 -21 -21 -22 -22 -22 -23 -24 -25 -25 -25 -25 -26 -26 -26 -27 -28 -28 -28 -29 -30 -30 -31 -32 -32 -33 -34 -34 -34 -35
-21 -21 -21 -21 -21 -21 -21 -22 -22 -22 -21 -21 -21 -21 -22 -22 -22 -23 -23 -24 -24 -25 -26 -26 -26 -26 -27 -27 -28 -28 -28 -29 -30 -30 -31 -32 -32 -33 -33 -34 -34 -35 -35 -35
-22 -22 -22 -22 -22 -23 -23 -23 -23 -23 -23 -23 -23 -23 -23 -23 -24 -24 -25 -25 -26 -26 -26 -27 -27 -27 -28 -28 -29 -29 -29 -30 -31 -32 -32 -33 -33 -34 -34 -35 -35 -36 -36 -36

GFSCGP_500_temp_045.txt.gz
Temp
-11 -11 -11 -12 -11 -11 -11 -11 -11 -12 -12 -11 -11 -11 -10 -10 -10 -10 -10 -10 -10 -10 -10 -10 -10 -10 -11 -11 -11 -10 -10 -10 -11 -11 -11 -11 -11 -12 -12 -12 -12 -12 -12 -12
-11 -11 -12 -12 -12 -12 -12 -11 -12 -12 -11 -11 -11 -10 -11 -10 -11 -10 -10 -10 -10 -10 -10 -10 -10 -11 -11 -11 -11 -10 -10 -10 -11 -11 -11 -11 -12 -12 -12 -12 -12 -12 -12 -12
-12 -11 -12 -12 -12 -12 -12 -12 -12 -12 -11 -11 -11 -10 -10 -11 -10 -11 -10 -10 -10 -10 -10 -10 -10 -11 -11 -11 -11 -10 -10 -10 -11 -11 -11 -12 -12 -12 -13 -13 -12 -12 -13 -13
-12 -11 -12 -12 -12 -13 -12 -12 -12 -12 -12 -12 -11 -9 -10 -10 -11 -11 -10 -10 -10 -10 -10 -11 -11 -11 -11 -11 -11 -11 -11 -11 -11 -11 -12 -12 -12 -13 -13 -13 -13 -13 -13 -13
-11 -11 -12 -12 -12 -13 -13 -12 -12 -12 -12 -12 -11 -10 -9 -10 -10 -11 -11 -11 -11 -11 -11 -11 -11 -11 -11 -11 -11 -11 -11 -11 -12 -12 -12 -13 -13 -13 -13 -14 -14 -14 -14 -14
-12 -12 -12 -13 -13 -13 -13 -13 -13 -13 -12 -11 -11 -11 -9 -10 -11 -11 -11 -11 -11 -11 -11 -12 -12 -12 -12 -12 -12 -12 -12 -12 -12 -13 -13 -13 -14 -14 -15 -15 -15 -15 -15 -15
-13 -13 -13 -13 -13 -13 -13 -14 -14 -13 -12 -11 -11 -11 -10 -10 -11 -11 -12 -12 -12 -12 -12 -12 -12 -12 -12 -13 -13 -13 -13 -13 -13 -13 -14 -14 -15 -15 -16 -16 -16 -16 -16 -16
-14 -14 -13 -14 -14 -14 -14 -14 -13 -13 -13 -12 -11 -11 -10 -11 -11 -12 -12 -12 -12 -12 -12 -12 -12 -12 -13 -13 -13 -13 -13 -13 -13 -13 -14 -15 -15 -16 -16 -16 -16 -16 -16 -17
-14 -14 -14 -14 -14 -14 -13 -13 -15 -14 -13 -12 -11 -11 -11 -11 -12 -12 -12 -13 -13 -13 -13 -13 -13 -13 -13 -13 -13 -13 -14 -14 -14 -14 -15 -15 -16 -16 -17 -17 -17 -17 -17 -17
-14 -14 -14 -14 -14 -14 -13 -13 -14 -14 -13 -13 -12 -11 -11 -11 -11 -12 -12 -13 -13 -13 -13 -13 -13 -13 -13 -13 -14 -14 -14 -14 -14 -15 -16 -16 -16 -17 -17 -17 -17 -17 -17 -17
-15 -14 -13 -13 -12 -14 -14 -14 -14 -14 -14 -13 -12 -11 -11 -11 -11 -12 -12 -12 -13 -13 -13 -13 -13 -13 -14 -14 -14 -14 -15 -15 -16 -17 -17 -17 -17 -17 -17 -17 -17 -17 -18 -18
-15 -15 -13 -13 -13 -14 -13 -13 -14 -14 -13 -13 -13 -10 -11 -11 -11 -11 -12 -13 -13 -14 -13 -14 -14 -14 -14 -14 -15 -15 -15 -16 -16 -17 -17 -17 -17 -18 -18 -18 -18 -18 -18 -19
-15 -15 -14 -14 -12 -12 -13 -14 -14 -14 -14 -12 -13 -10 -12 -12 -12 -13 -13 -14 -14 -14 -14 -14 -14 -15 -15 -15 -16 -16 -16 -17 -17 -17 -17 -18 -18 -18 -18 -19 -19 -19 -19 -19
-15 -15 -14 -13 -14 -14 -14 -14 -15 -15 -14 -11 -12 -12 -13 -13 -13 -14 -14 -14 -14 -14 -14 -14 -14 -15 -16 -16 -16 -17 -17 -17 -17 -18 -18 -18 -19 -19 -19 -19 -20 -20 -20 -20
-15 -14 -14 -14 -14 -15 -14 -14 -14 -14 -12 -14 -10 -13 -14 -14 -14 -14 -14 -14 -14 -15 -15 -15 -15 -16 -16 -17 -17 -17 -17 -18 -18 -18 -19 -19 -19 -20 -20 -20 -20 -20 -21 -22
-15 -14 -15 -14 -14 -15 -15 -14 -13 -13 -13 -13 -12 -12 -15 -14 -15 -15 -15 -15 -15 -15 -15 -16 -16 -16 -17 -17 -17 -17 -18 -18 -19 -19 -20 -20 -20 -20 -20 -21 -21 -22 -23 -24
-15 -15 -15 -14 -15 -15 -15 -11 -14 -14 -13 -14 -14 -13 -15 -15 -15 -15 -16 -16 -16 -16 -16 -17 -17 -17 -17 -17 -18 -18 -18 -19 -19 -20 -21 -21 -21 -21 -21 -22 -23 -24 -25 -25
-15 -15 -16 -15 -15 -16 -12 -14 -14 -14 -14 -14 -14 -15 -15 -16 -16 -15 -16 -16 -16 -17 -17 -17 -17 -17 -18 -18 -19 -19 -19 -20 -20 -21 -21 -21 -22 -23 -23 -24 -25 -25 -25 -26
-15 -16 -16 -16 -16 -15 -14 -13 -14 -14 -13 -15 -14 -15 -16 -16 -16 -16 -16 -17 -17 -17 -18 -18 -18 -18 -19 -19 -20 -20 -20 -21 -21 -22 -22 -23 -23 -24 -25 -26 -26 -26 -27 -27
-17 -17 -17 -17 -17 -16 -14 -15 -15 -16 -14 -14 -15 -16 -16 -17 -16 -16 -17 -17 -18 -18 -18 -19 -19 -19 -20 -20 -20 -20 -21 -21 -22 -23 -23 -24 -25 -25 -25 -26 -26 -27 -27 -28
-17 -17 -17 -17 -17 -17 -16 -17 -17 -17 -16 -16 -17 -17 -17 -17 -17 -18 -18 -18 -18 -19 -19 -19 -19 -20 -20 -21 -21 -22 -22 -23 -23 -24 -24 -25 -25 -26 -26 -27 -27 -27 -28 -29
-17 -17 -17 -18 -18 -18 -17 -18 -18 -18 -18 -18 -18 -17 -18 -17 -18 -19 -19 -19 -19 -19 -19 -20 -20 -21 -21 -22 -22 -22 -23 -24 -24 -24 -25 -26 -26 -27 -28 -28 -28 -28 -29 -30
-18 -18 -18 -18 -18 -18 -18 -18 -18 -19 -19 -19 -19 -18 -18 -19 -19 -19 -19 -20 -20 -20 -21 -21 -22 -22 -22 -23 -23 -23 -24 -25 -25 -25 -26 -27 -28 -28 -28 -28 -29 -30 -31 -32
-19 -19 -19 -19 -19 -19 -19 -19 -19 -19 -19 -19 -19 -19 -19 -19 -20 -20 -20 -20 -21 -21 -22 -22 -22 -23 -23 -23 -24 -24 -25 -25 -26 -27 -27 -28 -28 -29 -29 -30 -31 -31 -32 -33
-20 -20 -20 -20 -20 -20 -20 -20 -20 -20 -20 -20 -20 -20 -20 -20 -21 -21 -21 -21 -22 -22 -22 -23 -23 -24 -24 -25 -25 -26 -26 -26 -27 -28 -28 -29 -29 -30 -30 -31 -32 -33 -34 -34
-21 -22 -22 -22 -21 -21 -21 -21 -22 -22 -21 -21 -21 -22 -22 -22 -22 -22 -22 -23 -23 -23 -24 -24 -25 -25 -26 -26 -26 -26 -27 -28 -29 -29 -29 -30 -30 -31 -32 -33 -34 -34 -35 -35

GFSCGP_500_temp_048.txt.gz
Temp
-11 -10 -10 -11 -11 -11 -11 -11 -11 -12 -11 -11 -11 -11 -11 -10 -10 -10 -10 -10 -10 -10 -10 -10 -10 -10 -10 -10 -10 -10 -11 -11 -11 -11 -11 -11 -11 -11 -11 -11 -11 -12 -12 -12
-10 -10 -11 -11 -11 -11 -12 -12 -12 -12 -12 -11 -11 -10 -10 -10 -10 -11 -10 -10 -11 -11 -11 -10 -10 -10 -10 -10 -10 -11 -11 -11 -11 -11 -10 -10 -10 -11 -11 -11 -12 -12 -12 -12
-11 -11 -11 -11 -11 -12 -12 -12 -12 -12 -12 -11 -11 -10 -10 -10 -10 -10 -11 -11 -10 -11 -11 -10 -10 -10 -10 -10 -11 -11 -11 -11 -11 -11 -11 -10 -11 -11 -11 -12 -12 -12 -12 -12
-11 -11 -11 -12 -12 -12 -12 -12 -12 -12 -12 -12 -11 -10 -10 -10 -11 -10 -11 -11 -10 -11 -11 -10 -10 -10 -11 -11 -11 -11 -11 -11 -11 -11 -11 -11 -11 -12 -12 -12 -12 -13 -13 -13
-11 -12 -12 -12 -12 -13 -12 -13 -13 -13 -13 -12 -11 -10 -9 -10 -10 -10 -11 -11 -11 -11 -10 -11 -11 -11 -11 -11 -11 -11 -11 -11 -12 -12 -12 -12 -12 -12 -12 -13 -13 -13 -13 -14
-12 -12 -12 -12 -12 -13 -13 -13 -13 -13 -13 -11 -11 -12 -9 -10 -10 -10 -11 -11 -10 -10 -10 -11 -11 -11 -11 -12 -11 -11 -12 -12 -12 -12 -12 -12 -12 -12 -12 -13 -13 -14 -14 -15
-12 -12 -12 -13 -13 -13 -13 -13 -13 -13 -13 -11 -12 -11 -9 -10 -11 -11 -11 -11 -10 -11 -11 -11 -12 -12 -12 -12 -12 -12 -12 -12 -12 -12 -12 -12 -13 -13 -13 -13 -13 -14 -15 -15
-13 -13 -13 -13 -13 -14 -14 -14 -14 -13 -13 -12 -11 -9 -9 -10 -11 -12 -11 -11 -11 -12 -12 -12 -12 -12 -12 -12 -12 -12 -12 -12 -13 -13 -13 -13 -13 -13 -13 -14 -14 -15 -15 -15
-14 -13 -13 -13 -14 -14 -14 -13 -15 -14 -13 -12 -11 -10 -10 -9 -11 -12 -12 -12 -12 -13 -13 -13 -13 -13 -13 -13 -13 -13 -13 -13 -13 -13 -13 -13 -13 -13 -14 -14 -15 -15 -15 -16
-15 -15 -13 -13 -14 -14 -14 -14 -14 -14 -14 -13 -11 -10 -9 -10 -11 -12 -12 -13 -13 -13 -13 -13 -13 -13 -13 -13 -13 -13 -13 -13 -13 -13 -14 -14 -14 -15 -15 -15 -16 -16 -16 -17
-15 -15 -14 -13 -13 -14 -14 -14 -14 -15 -14 -13 -11 -10 -10 -10 -11 -12 -12 -13 -13 -14 -14 -13 -13 -13 -13 -13 -13 -13 -13 -13 -14 -14 -14 -14 -15 -15 -16 -16 -16 -17 -17 -17
-15 -15 -14 -14 -14 -14 -14 -14 -13 -14 -13 -13 -13 -9 -11 -11 -11 -12 -12 -13 -14 -14 -14 -14 -13 -13 -13 -13 -13 -13 -14 -14 -14 -14 -15 -15 -16 -16 -17 -17 -17 -17 -18 -18
-15 -15 -15 -14 -13 -12 -13 -14 -14 -15 -15 -11 -13 -8 -11 -12 -12 -13 -13 -14 -14 -14 -14 -13 -13 -13 -14 -14 -14 -14 -15 -15 -15 -15 -16 -16 -16 -17 -17 -17 -18 -18 -18 -19
-15 -15 -14 -13 -14 -14 -14 -14 -15 -15 -13 -13 -11 -12 -12 -13 -13 -13 -14 -14 -14 -14 -13 -14 -14 -14 -14 -14 -14 -15 -15 -15 -16 -16 -16 -17 -17 -17 -18 -18 -18 -19 -19 -19
-15 -15 -15 -14 -15 -15 -14 -14 -14 -14 -12 -14 -11 -12 -13 -14 -14 -13 -13 -13 -13 -14 -14 -14 -15 -14 -14 -15 -15 -15 -16 -16 -16 -17 -17 -17 -18 -18 -18 -19 -19 -20 -20 -20
-15 -15 -15 -14 -15 -15 -15 -14 -14 -13 -14 -13 -13 -11 -14 -15 -14 -14 -14 -14 -14 -15 -15 -15 -15 -15 -15 -15 -15 -16 -16 -17 -17 -17 -18 -18 -18 -19 -19 -20 -20 -20 -21 -21
-16 -15 -15 -15 -15 -15 -15 -12 -14 -14 -13 -14 -14 -12 -15 -15 -14 -14 -14 -14 -15 -15 -15 -15 -15 -15 -16 -16 -17 -17 -17 -17 -18 -18 -18 -19 -19 -20 -20 -20 -21 -21 -21 -21
-15 -16 -16 -15 -16 -16 -13 -14 -14 -14 -14 -14 -13 -14 -14 -15 -15 -15 -14 -14 -15 -15 -15 -16 -16 -16 -17 -17 -17 -17 -17 -18 -18 -19 -19 -20 -20 -21 -21 -21 -21 -22 -22 -23
-16 -15 -16 -16 -16 -15 -14 -13 -14 -15 -13 -14 -14 -14 -14 -15 -16 -15 -15 -16 -16 -16 -16 -16 -17 -17 -17 -17 -18 -18 -18 -19 -19 -20 -20 -21 -21 -21 -22 -22 -22 -23 -24 -25
-16 -16 -17 -17 -17 -16 -14 -14 -15 -16 -14 -14 -15 -16 -16 -16 -16 -16 -16 -16 -16 -17 -17 -17 -18 -18 -18 -18 -19 -19 -19 -20 -20 -21 -21 -21 -22 -22 -22 -23 -24 -25 -25 -26
-17 -17 -17 -17 -17 -17 -16 -16 -16 -16 -14 -15 -16 -17 -17 -17 -17 -16 -17 -17 -17 -17 -18 -18 -18 -19 -19 -19 -19 -20 -20 -20 -21 -21 -21 -22 -23 -23 -24 -24 -25 -26 -26 -26
-17 -17 -17 -17 -17 -17 -17 -17 -18 -17 -17 -17 -17 -17 -17 -17 -17 -17 -17 -17 -17 -18 -18 -19 -19 -19 -19 -20 -20 -20 -21 -21 -21 -22 -23 -23 -24 -24 -25 -25 -26 -26 -27 -28
-18 -18 -18 -18 -18 -18 -18 -18 -18 -18 -18 -18 -18 -18 -18 -18 -18 -18 -18 -18 -19 -19 -19 -20 -20 -20 -20 -21 -21 -21 -21 -22 -23 -23 -24 -24 -25 -25 -25 -26 -26 -27 -28 -29
-19 -19 -19 -18 -18 -18 -18 -19 -19 -19 -19 -19 -19 -19 -19 -19 -19 -19 -19 -19 -20 -20 -20 -20 -21 -21 -21 -21 -22 -22 -23 -23 -23 -24 -24 -25 -25 -26 -26 -27 -28 -29 -29 -29
-20 -20 -19 -19 -19 -19 -19 -19 -19 -20 -20 -20 -20 -19 -20 -20 -20 -20 -20 -20 -21 -21 -21 -21 -22 -22 -22 -22 -23 -23 -24 -24 -24 -25 -25 -26 -26 -27 -28 -29 -29 -29 -30 -30
-21 -21 -21 -21 -21 -20 -20 -20 -21 -20 -20 -20 -20 -20 -20 -20 -21 -21 -22 -22 -22 -22 -22 -22 -23 -23 -23 -23 -24 -24 -25 -25 -25 -26 -26 -27 -28 -29 -29 -29 -30 -30 -31 -32

GFSCGP_500_temp_051.txt.gz
Temp
-11 -10 -10 -11 -11 -11 -11 -10 -10 -11 -11 -10 -10 -10 -10 -10 -10 -10 -10 -10 -10 -10 -11 -11 -10 -10 -10 -10 -10 -10 -10 -10 -10 -11 -11 -11 -11 -11 -11 -11 -11 -11 -11 -11
-11 -10 -11 -11 -11 -11 -11 -11 -11 -11 -11 -10 -10 -10 -10 -10 -10 -10 -10 -10 -11 -11 -11 -11 -10 -10 -10 -10 -10 -11 -11 -11 -11 -11 -11 -11 -11 -11 -11 -11 -11 -11 -11 -11
-11 -11 -11 -11 -11 -11 -11 -11 -11 -11 -12 -11 -11 -9 -10 -10 -10 -10 -10 -10 -10 -11 -11 -11 -10 -11 -10 -10 -10 -11 -11 -11 -11 -11 -11 -11 -11 -11 -11 -11 -11 -11 -12 -12
-11 -11 -11 -11 -11 -11 -11 -12 -12 -12 -12 -11 -11 -9 -9 -10 -11 -10 -11 -11 -11 -11 -11 -11 -10 -10 -10 -10 -10 -11 -11 -11 -11 -11 -11 -12 -12 -12 -12 -12 -12 -12 -12 -12
-11 -11 -12 -11 -11 -12 -11 -12 -12 -12 -12 -12 -11 -10 -8 -10 -10 -11 -11 -11 -11 -11 -11 -11 -10 -11 -11 -10 -11 -11 -11 -12 -12 -12 -12 -12 -12 -12 -12 -12 -12 -12 -12 -13
-11 -11 -11 -11 -12 -12 -12 -12 -12 -12 -12 -11 -11 -11 -8 -10 -10 -11 -11 -11 -10 -11 -11 -11 -11 -11 -11 -11 -11 -12 -12 -12 -12 -12 -12 -12 -12 -12 -12 -12 -12 -13 -13 -13
-12 -12 -12 -12 -12 -12 -13 -13 -13 -13 -12 -11 -11 -11 -9 -10 -11 -11 -11 -11 -11 -11 -11 -11 -11 -11 -11 -12 -12 -12 -12 -12 -12 -12 -12 -12 -12 -12 -13 -13 -13 -13 -13 -13
-13 -13 -13 -12 -13 -14 -14 -13 -13 -12 -12 -12 -11 -9 -9 -10 -11 -11 -11 -11 -11 -10 -11 -11 -11 -12 -12 -12 -12 -12 -12 -12 -12 -13 -13 -13 -13 -13 -13 -13 -13 -13 -13 -13
-13 -13 -13 -13 -13 -14 -14 -13 -14 -14 -13 -12 -11 -10 -10 -10 -10 -11 -11 -11 -12 -11 -11 -12 -12 -12 -13 -13 -13 -12 -12 -13 -13 -13 -13 -13 -13 -13 -13 -13 -14 -14 -14 -14
-14 -14 -14 -14 -14 -14 -14 -14 -14 -14 -13 -12 -11 -10 -10 -10 -10 -11 -11 -12 -12 -12 -12 -13 -13 -13 -13 -13 -13 -13 -13 -13 -13 -13 -13 -13 -13 -14 -14 -14 -14 -14 -15 -15
-15 -15 -13 -14 -13 -15 -15 -14 -14 -15 -14 -13 -11 -10 -10 -10 -10 -11 -11 -12 -12 -12 -13 -13 -13 -13 -13 -13 -13 -13 -13 -14 -14 -14 -14 -14 -14 -14 -14 -14 -14 -15 -15 -16
-15 -16 -14 -14 -14 -15 -14 -14 -14 -14 -13 -14 -13 -8 -10 -11 -11 -12 -12 -13 -13 -13 -14 -14 -13 -13 -13 -14 -14 -14 -14 -14 -14 -14 -14 -14 -15 -15 -15 -15 -15 -15 -16 -17
-15 -15 -15 -14 -13 -13 -13 -14 -14 -15 -15 -12 -13 -8 -10 -11 -12 -13 -13 -13 -14 -13 -14 -14 -14 -14 -14 -14 -14 -14 -14 -14 -14 -14 -14 -14 -15 -15 -15 -16 -16 -16 -17 -17
-15 -15 -14 -13 -14 -15 -15 -15 -15 -16 -14 -13 -11 -11 -11 -12 -13 -13 -14 -13 -13 -13 -13 -14 -14 -14 -14 -14 -14 -14 -14 -15 -15 -15 -15 -16 -16 -16 -16 -17 -17 -17 -17 -18
-16 -15 -15 -14 -15 -16 -15 -15 -15 -15 -12 -15 -10 -12 -12 -12 -13 -14 -14 -14 -13 -14 -14 -14 -14 -14 -15 -15 -15 -15 -15 -15 -16 -16 -16 -17 -17 -17 -17 -18 -18 -18 -19 -19
-16 -15 -16 -15 -15 -16 -16 -15 -14 -14 -13 -14 -13 -11 -12 -14 -14 -14 -14 -14 -14 -14 -14 -14 -14 -14 -15 -15 -15 -16 -16 -16 -16 -16 -17 -17 -17 -18 -18 -18 -18 -19 -19 -20
-16 -16 -16 -15 -16 -16 -16 -13 -15 -15 -14 -14 -14 -11 -15 -14 -14 -14 -14 -14 -14 -14 -14 -14 -14 -15 -15 -15 -16 -16 -16 -17 -17 -17 -17 -18 -18 -18 -19 -19 -19 -19 -20 -20
-17 -17 -17 -16 -17 -16 -13 -14 -15 -16 -14 -14 -14 -13 -14 -15 -15 -14 -14 -14 -14 -15 -14 -14 -15 -15 -15 -16 -16 -16 -16 -17 -17 -18 -18 -18 -18 -19 -19 -19 -20 -20 -20 -21
-16 -17 -17 -17 -16 -16 -14 -13 -14 -15 -14 -15 -14 -14 -15 -15 -15 -13 -15 -15 -15 -15 -15 -15 -15 -15 -16 -16 -16 -16 -17 -17 -18 -18 -18 -19 -19 -19 -20 -20 -21 -21 -22 -22
-17 -17 -17 -17 -17 -16 -14 -14 -15 -16 -14 -15 -16 -15 -16 -16 -15 -14 -15 -15 -15 -15 -15 -15 -15 -16 -16 -17 -17 -17 -18 -18 -18 -19 -19 -19 -20 -20 -20 -21 -22 -22 -22 -23
-17 -17 -17 -17 -17 -17 -16 -15 -16 -16 -14 -16 -16 -17 -17 -16 -16 -15 -16 -16 -16 -16 -16 -16 -16 -17 -17 -17 -18 -18 -18 -19 -19 -19 -19 -20 -21 -21 -21 -21 -22 -22 -23 -24
-17 -18 -18 -18 -18 -17 -17 -17 -17 -17 -17 -17 -16 -17 -17 -17 -17 -17 -17 -17 -17 -17 -17 -17 -18 -18 -18 -18 -18 -19 -19 -20 -20 -20 -21 -21 -21 -21 -22 -22 -23 -24 -25 -26
-18 -18 -18 -18 -18 -18 -18 -18 -18 -18 -17 -17 -17 -17 -17 -17 -17 -18 -18 -18 -18 -18 -19 -19 -19 -19 -19 -19 -20 -20 -20 -21 -21 -21 -21 -22 -22 -23 -23 -24 -25 -25 -26 -27
-19 -19 -19 -19 -18 -19 -18 -18 -18 -18 -18 -18 -18 -18 -18 -18 -18 -18 -19 -19 -19 -19 -19 -19 -20 -20 -20 -21 -21 -21 -21 -21 -21 -22 -22 -23 -23 -24 -25 -25 -26 -26 -27 -27
-20 -20 -19 -19 -19 -19 -19 -19 -19 -19 -19 -19 -19 -19 -19 -19 -19 -19 -19 -19 -20 -20 -20 -20 -21 -21 -21 -21 -21 -22 -22 -23 -23 -23 -23 -24 -24 -25 -26 -26 -27 -27 -28 -28
-21 -21 -20 -20 -20 -20 -20 -20 -20 -20 -20 -20 -20 -20 -20 -20 -21 -21 -21 -21 -21 -21 -21 -21 -21 -21 -22 -22 -23 -23 -23 -24 -24 -24 -25 -25 -26 -26 -27 -27 -27 -28 -29 -29

GFSCGP_500_temp_054.txt.gz
Temp
-11 -11 -11 -11 -11 -10 -10 -10 -10 -10 -10 -10 -10 -10 -10 -10 -10 -11 -11 -11 -11 -11 -10 -11 -11 -11 -11 -11 -11 -11 -11 -11 -11 -10 -10 -10 -11 -11 -11 -11 -11 -11 -11 -11
-11 -11 -11 -11 -11 -11 -11 -10 -11 -11 -11 -10 -10 -10 -10 -10 -10 -10 -10 -10 -11 -11 -11 -11 -11 -11 -11 -11 -11 -11 -11 -11 -10 -11 -11 -11 -11 -11 -11 -11 -11 -12 -12 -12
-11 -11 -11 -11 -11 -11 -11 -11 -11 -11 -11 -10 -10 -9 -9 -10 -10 -10 -10 -11 -11 -11 -11 -11 -10 -10 -10 -10 -10 -11 -10 -10 -11 -11 -11 -11 -11 -11 -11 -12 -12 -12 -12 -12
-11 -11 -11 -12 -11 -12 -11 -12 -11 -11 -11 -11 -11 -9 -9 -10 -10 -10 -11 -11 -11 -11 -11 -11 -11 -10 -10 -10 -10 -10 -10 -10 -11 -11 -12 -12 -12 -12 -12 -12 -12 -12 -12 -12
-11 -12 -12 -12 -12 -12 -11 -12 -12 -11 -11 -11 -11 -11 -9 -10 -10 -11 -11 -11 -11 -11 -11 -11 -11 -11 -10 -10 -10 -11 -11 -11 -11 -12 -12 -12 -12 -12 -12 -13 -13 -13 -13 -13
-12 -12 -12 -12 -12 -12 -12 -12 -12 -12 -12 -11 -10 -11 -8 -9 -10 -11 -11 -11 -11 -11 -11 -10 -10 -10 -10 -10 -11 -11 -11 -11 -11 -12 -12 -12 -12 -12 -13 -13 -13 -13 -13 -13
-12 -12 -12 -12 -12 -12 -12 -13 -13 -13 -12 -11 -11 -11 -9 -9 -10 -11 -11 -11 -11 -11 -11 -11 -11 -11 -10 -10 -11 -11 -11 -12 -12 -12 -12 -12 -12 -13 -13 -13 -13 -13 -13 -13
-13 -12 -12 -12 -12 -13 -13 -13 -13 -13 -12 -11 -11 -9 -9 -10 -11 -11 -11 -11 -11 -11 -11 -11 -11 -10 -10 -11 -11 -11 -12 -12 -12 -12 -13 -13 -13 -13 -13 -13 -13 -13 -14 -13
-13 -13 -13 -13 -13 -13 -13 -13 -13 -14 -13 -11 -10 -9 -9 -10 -10 -10 -11 -11 -11 -11 -11 -11 -11 -11 -11 -11 -12 -12 -13 -13 -13 -13 -13 -13 -13 -13 -14 -14 -14 -14 -14 -14
-14 -13 -13 -13 -13 -13 -13 -13 -14 -14 -13 -12 -10 -9 -9 -10 -10 -11 -11 -11 -11 -11 -11 -11 -11 -11 -12 -12 -13 -13 -13 -13 -13 -13 -14 -13 -14 -14 -14 -14 -14 -14 -14 -14
-15 -15 -13 -13 -13 -13 -14 -13 -14 -14 -14 -13 -11 -9 -10 -10 -11 -11 -11 -11 -12 -11 -11 -11 -11 -12 -12 -12 -13 -13 -13 -13 -13 -13 -13 -14 -14 -14 -14 -14 -14 -14 -14 -14
-15 -15 -14 -13 -13 -13 -13 -13 -14 -14 -14 -13 -12 -8 -10 -11 -12 -12 -12 -12 -12 -12 -12 -12 -12 -13 -13 -13 -13 -13 -13 -14 -14 -14 -14 -14 -14 -15 -15 -15 -15 -15 -15 -15
-15 -15 -14 -13 -13 -12 -12 -12 -13 -14 -15 -12 -13 -8 -10 -11 -12 -12 -13 -13 -12 -12 -13 -13 -13 -13 -14 -14 -14 -14 -14 -14 -14 -14 -14 -15 -15 -15 -15 -15 -15 -15 -16 -16
-16 -16 -14 -13 -14 -14 -14 -15 -15 -16 -14 -13 -11 -10 -11 -11 -13 -13 -14 -13 -12 -12 -13 -14 -14 -14 -14 -14 -14 -14 -15 -15 -15 -15 -15 -15 -15 -15 -15 -15 -16 -16 -16 -17
-17 -16 -16 -14 -15 -16 -15 -14 -15 -15 -12 -15 -10 -13 -10 -12 -13 -14 -14 -13 -13 -13 -13 -14 -14 -14 -14 -14 -14 -14 -15 -15 -15 -15 -15 -15 -15 -15 -16 -16 -17 -17 -17 -18
-17 -16 -17 -16 -16 -15 -16 -15 -13 -13 -13 -14 -11 -11 -12 -14 -14 -14 -14 -14 -13 -13 -13 -14 -14 -14 -14 -14 -15 -15 -15 -15 -15 -15 -15 -15 -16 -17 -17 -17 -18 -18 -18 -19
-17 -17 -17 -16 -16 -16 -16 -12 -14 -14 -14 -14 -14 -10 -14 -13 -14 -14 -14 -14 -14 -13 -13 -14 -14 -14 -15 -15 -15 -15 -15 -15 -15 -15 -16 -16 -16 -17 -17 -18 -18 -19 -19 -19
-17 -17 -17 -17 -17 -17 -14 -14 -15 -16 -15 -15 -15 -13 -14 -14 -15 -14 -14 -14 -14 -14 -14 -14 -14 -14 -15 -15 -15 -15 -15 -15 -15 -16 -16 -16 -17 -17 -18 -18 -19 -19 -19 -19
-17 -17 -17 -18 -17 -16 -15 -14 -14 -16 -15 -15 -15 -14 -14 -15 -15 -13 -14 -15 -14 -14 -14 -14 -14 -14 -14 -15 -15 -15 -15 -16 -16 -16 -17 -17 -17 -18 -18 -19 -19 -19 -20 -20
-18 -17 -17 -17 -17 -18 -14 -15 -15 -17 -16 -14 -16 -15 -15 -16 -14 -13 -16 -14 -15 -14 -15 -15 -15 -15 -15 -15 -16 -16 -16 -16 -16 -17 -17 -18 -18 -18 -19 -19 -19 -20 -21 -21
-18 -18 -17 -17 -17 -17 -16 -16 -17 -17 -15 -16 -16 -16 -16 -16 -15 -14 -15 -15 -15 -15 -15 -15 -16 -16 -16 -16 -16 -17 -17 -17 -17 -17 -18 -18 -19 -19 -19 -20 -21 -21 -22 -22
-18 -18 -18 -18 -18 -18 -17 -17 -17 -17 -17 -16 -16 -16 -16 -16 -16 -15 -15 -15 -16 -16 -16 -16 -16 -17 -17 -17 -17 -18 -18 -18 -18 -18 -19 -19 -20 -20 -20 -21 -22 -22 -22 -23
-20 -19 -19 -18 -18 -18 -18 -18 -18 -18 -17 -17 -17 -17 -17 -16 -16 -17 -17 -17 -17 -17 -17 -17 -17 -17 -17 -17 -17 -18 -18 -19 -19 -19 -20 -20 -20 -21 -22 -22 -22 -22 -23 -23
-20 -20 -20 -20 -19 -19 -19 -19 -19 -18 -18 -18 -17 -17 -17 -17 -17 -17 -17 -17 -18 -18 -18 -18 -18 -18 -18 -19 -19 -19 -19 -19 -20 -20 -20 -21 -21 -22 -22 -22 -23 -23 -24 -25
-22 -21 -20 -20 -20 -20 -19 -19 -19 -19 -19 -19 -19 -19 -18 -18 -18 -18 -18 -18 -19 -19 -19 -19 -19 -20 -20 -20 -20 -20 -20 -20 -21 -21 -21 -22 -22 -23 -23 -24 -24 -25 -26 -26
-21 -21 -21 -21 -21 -21 -20 -20 -20 -20 -20 -20 -20 -20 -20 -19 -20 -20 -20 -20 -20 -20 -20 -20 -20 -20 -21 -21 -21 -21 -21 -21 -22 -22 -23 -23 -23 -24 -24 -25 -26 -26 -27 -28

GFSCGP_500_temp_057.txt.gz
Temp
-11 -11 -11 -11 -11 -11 -10 -10 -10 -11 -10 -10 -10 -10 -10 -10 -10 -10 -10 -10 -10 -11 -11 -11 -11 -11 -11 -11 -11 -11 -11 -11 -11 -11 -11 -11 -11 -11 -11 -11 -11 -11 -12 -12
-11 -11 -11 -11 -11 -11 -11 -11 -11 -11 -11 -10 -10 -10 -10 -10 -10 -10 -10 -10 -11 -11 -11 -11 -11 -11 -11 -11 -11 -11 -11 -11 -11 -11 -11 -11 -11 -11 -11 -11 -12 -12 -12 -12
-11 -11 -11 -11 -11 -11 -11 -11 -11 -11 -11 -10 -10 -10 -10 -10 -10 -10 -11 -11 -11 -11 -11 -11 -11 -11 -11 -11 -11 -10 -10 -10 -11 -11 -11 -11 -11 -11 -11 -11 -12 -12 -12 -12
-11 -11 -11 -12 -11 -12 -11 -12 -11 -11 -11 -11 -11 -9 -9 -10 -10 -11 -11 -11 -11 -11 -11 -11 -11 -11 -11 -11 -10 -10 -10 -11 -11 -11 -11 -11 -11 -11 -11 -12 -12 -12 -12 -13
-11 -11 -12 -12 -12 -12 -11 -12 -12 -12 -11 -11 -10 -10 -8 -9 -10 -11 -12 -11 -11 -11 -11 -11 -11 -11 -11 -11 -11 -10 -11 -11 -11 -11 -11 -11 -11 -11 -12 -12 -12 -12 -13 -13
-12 -12 -12 -12 -12 -12 -12 -12 -12 -12 -12 -11 -10 -11 -9 -9 -10 -11 -12 -12 -12 -11 -11 -11 -11 -11 -11 -11 -10 -11 -11 -11 -11 -11 -11 -11 -11 -12 -12 -13 -13 -13 -13 -13
-12 -12 -12 -13 -12 -12 -12 -12 -13 -12 -12 -11 -10 -10 -9 -9 -9 -10 -11 -11 -11 -11 -11 -11 -11 -10 -10 -10 -10 -10 -11 -11 -11 -11 -11 -12 -12 -12 -13 -13 -13 -13 -13 -13
-13 -12 -12 -12 -13 -13 -13 -13 -13 -12 -12 -11 -11 -9 -8 -9 -10 -11 -10 -11 -11 -11 -11 -11 -10 -10 -10 -10 -10 -10 -11 -11 -11 -11 -12 -12 -12 -13 -13 -13 -13 -13 -14 -14
-13 -13 -13 -13 -13 -14 -13 -13 -13 -13 -13 -12 -10 -9 -9 -9 -10 -10 -11 -11 -12 -11 -10 -10 -10 -10 -10 -10 -10 -10 -10 -11 -11 -11 -12 -12 -13 -13 -13 -13 -13 -14 -14 -14
-14 -14 -13 -13 -13 -13 -13 -13 -13 -13 -13 -12 -10 -9 -9 -9 -10 -10 -11 -12 -12 -11 -11 -11 -10 -10 -10 -10 -11 -11 -11 -11 -11 -12 -12 -13 -13 -13 -14 -14 -14 -14 -14 -14
-15 -14 -13 -13 -13 -13 -14 -13 -13 -13 -13 -13 -11 -9 -9 -9 -10 -10 -11 -11 -12 -12 -11 -10 -10 -10 -10 -11 -11 -11 -12 -12 -12 -13 -13 -13 -14 -14 -14 -14 -14 -14 -15 -15
-16 -16 -14 -13 -13 -14 -14 -13 -14 -13 -13 -13 -12 -9 -10 -10 -10 -11 -11 -12 -12 -12 -11 -11 -11 -11 -11 -11 -12 -12 -12 -13 -13 -13 -13 -14 -14 -14 -14 -15 -15 -15 -15 -15
-16 -16 -15 -15 -14 -13 -13 -13 -13 -13 -13 -12 -12 -9 -10 -11 -11 -11 -12 -13 -13 -12 -12 -12 -12 -12 -11 -11 -12 -12 -13 -13 -14 -14 -14 -14 -14 -14 -15 -15 -15 -15 -15 -15
-17 -16 -15 -14 -14 -15 -14 -14 -15 -15 -14 -12 -12 -10 -10 -10 -11 -12 -13 -13 -12 -12 -12 -12 -12 -12 -12 -12 -12 -13 -13 -14 -14 -14 -14 -14 -15 -15 -15 -15 -15 -15 -15 -15
-17 -17 -17 -16 -16 -15 -15 -15 -15 -14 -13 -14 -10 -13 -10 -12 -12 -12 -13 -13 -13 -12 -12 -12 -12 -12 -12 -12 -13 -13 -14 -15 -15 -14 -14 -15 -15 -15 -15 -15 -15 -15 -15 -15
-18 -17 -17 -16 -15 -16 -16 -16 -14 -13 -13 -14 -11 -12 -11 -12 -14 -13 -14 -13 -13 -13 -12 -12 -12 -13 -13 -13 -13 -13 -14 -14 -14 -15 -15 -15 -15 -15 -15 -15 -15 -15 -15 -16
-18 -18 -18 -16 -16 -18 -18 -13 -13 -15 -14 -14 -13 -11 -14 -13 -14 -14 -14 -13 -13 -13 -13 -13 -13 -13 -14 -14 -14 -14 -14 -14 -14 -14 -15 -15 -15 -15 -15 -15 -16 -16 -16 -17
-18 -18 -18 -17 -17 -18 -15 -14 -15 -15 -14 -15 -14 -12 -12 -13 -15 -15 -13 -13 -14 -14 -14 -13 -14 -14 -14 -14 -14 -14 -14 -14 -14 -15 -15 -15 -15 -16 -16 -16 -16 -16 -17 -18
-19 -19 -19 -19 -18 -18 -16 -14 -15 -16 -15 -16 -15 -14 -13 -14 -16 -13 -13 -15 -15 -14 -14 -14 -14 -14 -14 -14 -14 -14 -14 -15 -15 -16 -16 -16 -16 -16 -16 -16 -18 -18 -18 -19
-19 -19 -20 -19 -19 -19 -15 -16 -16 -16 -16 -14 -16 -15 -15 -16 -16 -13 -15 -15 -15 -14 -14 -15 -15 -15 -15 -15 -15 -15 -15 -15 -16 -16 -16 -16 -16 -17 -17 -18 -18 -18 -18 -19
-20 -19 -20 -19 -19 -19 -17 -17 -17 -18 -16 -15 -16 -17 -16 -16 -16 -15 -15 -16 -15 -15 -15 -15 -15 -15 -15 -15 -15 -15 -16 -16 -16 -16 -17 -17 -17 -17 -17 -18 -18 -18 -19 -20
-20 -20 -20 -20 -20 -19 -18 -18 -18 -17 -17 -17 -17 -17 -17 -16 -16 -16 -16 -16 -16 -16 -15 -16 -16 -16 -16 -16 -16 -17 -17 -16 -16 -17 -17 -18 -18 -18 -18 -19 -19 -20 -20 -21
-21 -20 -20 -20 -20 -19 -19 -19 -18 -18 -17 -17 -17 -17 -17 -17 -17 -16 -16 -16 -16 -16 -16 -16 -16 -16 -17 -17 -17 -17 -17 -18 -18 -18 -19 -19 -19 -19 -19 -20 -20 -20 -21 -21
-22 -21 -21 -21 -20 -20 -20 -19 -19 -18 -18 -18 -18 -17 -17 -17 -17 -17 -17 -17 -17 -17 -17 -17 -17 -17 -18 -18 -18 -18 -18 -19 -19 -19 -19 -19 -20 -20 -20 -20 -20 -20 -21 -21
-22 -22 -22 -22 -21 -21 -20 -21 -20 -20 -19 -19 -19 -19 -18 -18 -18 -18 -18 -18 -18 -18 -18 -18 -19 -19 -19 -19 -19 -19 -19 -20 -20 -20 -20 -20 -20 -21 -21 -21 -21 -22 -22 -23
-23 -23 -22 -22 -22 -22 -21 -22 -21 -21 -21 -20 -20 -20 -19 -19 -19 -19 -19 -19 -19 -19 -19 -20 -20 -20 -20 -20 -20 -20 -21 -21 -21 -21 -21 -21 -22 -22 -22 -22 -23 -23 -24 -25

GFSCGP_500_temp_060.txt.gz
Temp
-11 -11 -11 -11 -11 -11 -11 -11 -11 -11 -11 -10 -10 -10 -10 -10 -10 -10 -10 -10 -10 -10 -11 -11 -10 -11 -11 -11 -11 -11 -11 -11 -11 -11 -11 -11 -11 -11 -11 -11 -11 -11 -11 -12
-11 -11 -12 -11 -11 -11 -11 -11 -11 -11 -11 -10 -10 -10 -10 -10 -10 -10 -10 -11 -11 -11 -11 -11 -11 -11 -11 -10 -10 -11 -11 -11 -11 -11 -11 -11 -11 -11 -11 -11 -11 -11 -12 -12
-11 -11 -12 -11 -11 -11 -11 -11 -11 -11 -11 -11 -10 -10 -10 -10 -10 -10 -11 -11 -11 -11 -11 -11 -11 -11 -11 -11 -11 -10 -10 -10 -11 -11 -11 -11 -11 -11 -11 -11 -11 -11 -12 -12
-11 -11 -11 -12 -11 -12 -11 -12 -11 -11 -11 -11 -10 -10 -10 -10 -10 -10 -11 -11 -11 -11 -11 -11 -11 -11 -11 -11 -10 -10 -10 -10 -11 -11 -11 -11 -11 -11 -11 -11 -11 -11 -12 -12
-11 -12 -12 -12 -12 -13 -12 -12 -12 -12 -12 -11 -10 -11 -9 -10 -9 -10 -11 -11 -12 -12 -11 -11 -11 -11 -11 -11 -11 -10 -10 -10 -11 -11 -11 -11 -11 -11 -11 -11 -11 -11 -12 -12
-12 -12 -12 -12 -12 -13 -12 -12 -12 -12 -12 -11 -10 -11 -9 -9 -10 -10 -11 -12 -11 -11 -11 -11 -11 -11 -11 -10 -10 -10 -10 -10 -10 -10 -11 -11 -11 -11 -11 -12 -12 -12 -12 -12
-13 -12 -12 -12 -12 -13 -13 -13 -13 -13 -12 -11 -11 -11 -9 -9 -10 -10 -11 -11 -11 -11 -11 -11 -11 -11 -10 -10 -10 -10 -10 -11 -10 -10 -11 -11 -11 -11 -11 -12 -12 -12 -12 -13
-13 -13 -13 -12 -13 -13 -13 -13 -13 -12 -12 -11 -11 -10 -9 -9 -10 -10 -11 -11 -11 -11 -11 -11 -11 -11 -11 -11 -10 -10 -10 -10 -11 -10 -11 -11 -11 -11 -12 -12 -12 -13 -13 -13
-14 -14 -13 -13 -14 -14 -13 -13 -13 -13 -13 -12 -10 -10 -10 -10 -10 -10 -10 -11 -12 -11 -11 -11 -11 -11 -11 -10 -10 -10 -10 -10 -11 -11 -11 -11 -11 -11 -12 -12 -12 -13 -13 -13
-15 -14 -14 -14 -14 -14 -13 -13 -13 -13 -13 -12 -11 -10 -10 -10 -10 -10 -10 -11 -12 -12 -11 -11 -11 -10 -10 -11 -11 -10 -10 -11 -11 -11 -11 -11 -11 -12 -12 -12 -13 -13 -14 -14
-15 -15 -14 -14 -13 -13 -14 -13 -14 -14 -14 -13 -12 -10 -10 -10 -11 -10 -11 -11 -11 -12 -12 -11 -11 -10 -10 -10 -11 -11 -10 -10 -11 -11 -11 -11 -12 -12 -13 -13 -13 -14 -14 -14
-16 -16 -14 -14 -14 -14 -14 -13 -14 -14 -13 -14 -13 -10 -10 -10 -11 -11 -11 -11 -12 -12 -12 -12 -12 -11 -11 -11 -11 -11 -11 -11 -11 -11 -11 -11 -13 -13 -13 -13 -14 -14 -14 -15
-17 -17 -16 -15 -14 -13 -13 -13 -14 -14 -14 -13 -13 -10 -10 -11 -11 -11 -11 -12 -13 -13 -13 -12 -12 -12 -11 -11 -11 -11 -11 -11 -11 -12 -12 -12 -13 -13 -14 -14 -14 -15 -15 -15
-17 -17 -17 -15 -15 -15 -15 -15 -15 -16 -16 -12 -14 -10 -11 -11 -12 -12 -13 -13 -13 -13 -13 -13 -12 -12 -12 -11 -11 -11 -11 -11 -11 -12 -12 -13 -14 -14 -14 -14 -15 -15 -15 -15
-17 -17 -17 -17 -17 -16 -16 -15 -15 -15 -13 -15 -11 -14 -10 -12 -12 -12 -13 -13 -13 -13 -13 -12 -12 -12 -12 -13 -12 -12 -12 -12 -12 -12 -13 -13 -14 -15 -15 -15 -15 -15 -15 -16
-18 -18 -18 -17 -17 -18 -17 -17 -15 -14 -14 -15 -12 -12 -11 -12 -13 -13 -14 -14 -14 -13 -13 -12 -12 -12 -12 -12 -12 -13 -13 -14 -14 -14 -14 -14 -14 -15 -15 -15 -15 -15 -15 -15
-19 -18 -19 -18 -17 -18 -18 -15 -15 -16 -15 -15 -14 -12 -13 -13 -13 -14 -14 -13 -13 -13 -13 -13 -13 -12 -12 -13 -13 -14 -14 -14 -14 -14 -15 -15 -15 -15 -15 -15 -15 -16 -15 -15
-18 -19 -19 -19 -19 -19 -16 -16 -16 -16 -16 -16 -16 -13 -14 -14 -14 -15 -14 -13 -14 -14 -14 -13 -12 -12 -13 -13 -13 -13 -14 -15 -15 -14 -15 -15 -15 -15 -16 -15 -15 -16 -16 -16
-19 -18 -18 -19 -18 -18 -17 -16 -16 -17 -16 -17 -16 -15 -14 -16 -16 -14 -15 -15 -15 -14 -14 -13 -13 -13 -13 -14 -14 -14 -14 -15 -15 -15 -15 -16 -16 -16 -16 -16 -16 -16 -16 -16
-19 -20 -19 -19 -18 -19 -17 -16 -16 -17 -17 -16 -17 -17 -16 -17 -16 -14 -16 -15 -15 -14 -14 -14 -14 -14 -14 -14 -14 -14 -15 -15 -15 -15 -15 -16 -16 -16 -16 -16 -17 -17 -16 -17
-20 -20 -18 -19 -19 -19 -18 -18 -18 -19 -17 -16 -17 -17 -17 -17 -17 -16 -15 -15 -16 -15 -15 -15 -15 -15 -15 -15 -15 -15 -15 -15 -15 -15 -16 -16 -17 -17 -17 -17 -17 -17 -17 -18
-21 -20 -19 -20 -20 -20 -19 -19 -19 -20 -19 -18 -18 -17 -17 -16 -16 -16 -16 -16 -16 -16 -16 -15 -15 -16 -16 -16 -16 -16 -16 -16 -16 -16 -17 -17 -17 -17 -18 -18 -18 -18 -18 -18
-22 -21 -21 -21 -21 -21 -20 -21 -20 -20 -19 -19 -19 -19 -18 -18 -17 -17 -17 -16 -17 -16 -16 -16 -16 -17 -16 -16 -16 -16 -17 -17 -17 -17 -17 -18 -18 -18 -18 -18 -18 -19 -19 -19
-22 -22 -22 -22 -22 -22 -21 -21 -21 -20 -20 -19 -19 -19 -19 -19 -18 -18 -18 -17 -18 -17 -17 -17 -17 -17 -17 -17 -17 -17 -17 -17 -17 -18 -18 -18 -19 -19 -19 -19 -19 -20 -20 -20
-24 -24 -23 -22 -23 -22 -22 -21 -21 -21 -20 -20 -20 -20 -20 -20 -20 -19 -19 -19 -19 -18 -18 -18 -18 -18 -18 -18 -18 -18 -18 -18 -18 -19 -19 -19 -20 -20 -20 -20 -21 -21 -21 -21
-24 -24 -24 -23 -24 -23 -22 -22 -22 -21 -21 -20 -20 -20 -21 -20 -20 -20 -20 -20 -20 -19 -19 -19 -19 -19 -19 -19 -19 -19 -20 -20 -20 -20 -20 -20 -20 -21 -21 -21 -21 -22 -22 -22